| time (UTC) | temp F | wind direction | speed knots | gust knots | rain 1hr in | rain 24hr in | rain mn in | humidity % | barometer mb |
| 20260510045409 | 73 | 148 | 2.6 | 5.2 | 0.00 | 0.00 | 0.00 | 69 | 939.8 |
| 20260510045311 | 74 | 144 | 2.6 | 5.2 | 0.00 | 0.00 | 0.00 | 68 | 939.8 |
| 20260510045210 | 74 | 145 | 2.6 | 5.2 | 0.00 | 0.00 | 0.00 | 68 | 939.8 |
| 20260510045110 | 74 | 142 | 2.6 | 5.2 | 0.00 | 0.00 | 0.00 | 68 | 939.9 |
| 20260510045010 | 74 | 151 | 2.6 | 5.2 | 0.00 | 0.00 | 0.00 | 68 | 939.9 |
| 20260510044904 | 74 | 145 | 2.6 | 5.2 | 0.00 | 0.00 | 0.00 | 67 | 939.9 |
| 20260510044805 | 74 | 153 | 2.6 | 5.2 | 0.00 | 0.00 | 0.00 | 67 | 939.8 |
| 20260510044703 | 74 | 146 | 2.6 | 5.2 | 0.00 | 0.00 | 0.00 | 67 | 939.8 |
| 20260510044603 | 74 | 153 | 2.6 | 5.2 | 0.00 | 0.00 | 0.00 | 67 | 939.9 |
| 20260510044504 | 74 | 147 | 2.6 | 5.2 | 0.00 | 0.00 | 0.00 | 67 | 939.9 |
| 20260510044358 | 74 | 137 | 2.6 | 5.2 | 0.00 | 0.00 | 0.00 | 67 | 939.8 |
| 20260510044257 | 74 | 136 | 2.6 | 5.2 | 0.00 | 0.00 | 0.00 | 66 | 939.9 |
| 20260510044159 | 74 | 130 | 2.6 | 5.2 | 0.00 | 0.00 | 0.00 | 66 | 939.8 |
| 20260510044058 | 74 | 157 | 2.6 | 5.2 | 0.00 | 0.00 | 0.00 | 66 | 939.8 |
| 20260510043958 | 75 | 140 | 2.6 | 7.0 | 0.00 | 0.00 | 0.00 | 66 | 939.8 |
| 20260510043852 | 75 | 131 | 2.6 | 7.0 | 0.00 | 0.00 | 0.00 | 66 | 939.8 |
| 20260510043751 | 75 | 146 | 2.6 | 7.0 | 0.00 | 0.00 | 0.00 | 66 | 939.8 |
| 20260510043651 | 75 | 163 | 2.6 | 7.0 | 0.00 | 0.00 | 0.00 | 66 | 939.8 |
| 20260510043551 | 75 | 153 | 2.6 | 7.0 | 0.00 | 0.00 | 0.00 | 66 | 939.8 |
| 20260510043452 | 75 | 171 | 3.5 | 7.0 | 0.00 | 0.00 | 0.00 | 66 | 939.8 |
| 20260510043346 | 75 | 149 | 3.5 | 7.8 | 0.00 | 0.00 | 0.00 | 66 | 939.8 |
| 20260510043246 | 75 | 134 | 3.5 | 7.8 | 0.00 | 0.00 | 0.00 | 66 | 939.8 |
| 20260510043146 | 75 | 144 | 3.5 | 7.8 | 0.00 | 0.00 | 0.00 | 65 | 939.8 |
| 20260510043046 | 75 | 173 | 3.5 | 7.8 | 0.00 | 0.00 | 0.00 | 65 | 939.8 |
| 20260510042945 | 75 | 149 | 3.5 | 7.8 | 0.00 | 0.00 | 0.00 | 65 | 939.8 |
| 20260510042840 | 75 | 151 | 3.5 | 7.8 | 0.00 | 0.00 | 0.00 | 65 | 939.8 |
| 20260510042740 | 75 | 153 | 3.5 | 7.8 | 0.00 | 0.00 | 0.00 | 65 | 939.8 |
| 20260510042641 | 75 | 155 | 3.5 | 7.8 | 0.00 | 0.00 | 0.00 | 65 | 939.8 |
| 20260510042539 | 75 | 142 | 3.5 | 7.8 | 0.00 | 0.00 | 0.00 | 65 | 939.7 |
| 20260510042440 | 75 | 121 | 3.5 | 7.8 | 0.00 | 0.00 | 0.00 | 64 | 939.8 |
| 20260510042334 | 75 | 106 | 3.5 | 7.8 | 0.00 | 0.00 | 0.00 | 64 | 939.7 |
| 20260510042234 | 75 | 159 | 3.5 | 8.7 | 0.00 | 0.00 | 0.00 | 64 | 939.8 |
| 20260510042135 | 76 | 117 | 4.3 | 8.7 | 0.00 | 0.00 | 0.00 | 64 | 939.8 |
| 20260510042034 | 76 | 157 | 4.3 | 8.7 | 0.00 | 0.00 | 0.00 | 64 | 939.8 |
| 20260510041934 | 76 | 158 | 4.3 | 8.7 | 0.00 | 0.00 | 0.00 | 64 | 939.8 |
| 20260510041903 | 76 | 118 | 4.3 | 8.7 | 0.00 | 0.00 | 0.00 | 64 | 939.7 |
| 20260510041729 | 76 | 157 | 4.3 | 8.7 | 0.00 | 0.00 | 0.00 | 64 | 939.8 |
| 20260510041629 | 76 | 153 | 4.3 | 8.7 | 0.00 | 0.00 | 0.00 | 64 | 939.8 |
| 20260510041531 | 76 | 171 | 4.3 | 8.7 | 0.00 | 0.00 | 0.00 | 64 | 939.8 |
| 20260510041428 | 76 | 134 | 4.3 | 8.7 | 0.00 | 0.00 | 0.00 | 64 | 939.7 |
| 20260510041322 | 76 | 122 | 4.3 | 8.7 | 0.00 | 0.00 | 0.00 | 64 | 939.7 |
| 20260510041221 | 76 | 184 | 4.3 | 8.7 | 0.00 | 0.00 | 0.00 | 64 | 939.7 |
| 20260510041122 | 76 | 157 | 5.2 | 10.4 | 0.00 | 0.00 | 0.00 | 64 | 939.7 |
| 20260510041021 | 76 | 158 | 5.2 | 10.4 | 0.00 | 0.00 | 0.00 | 64 | 939.7 |
| 20260510040921 | 76 | 141 | 5.2 | 10.4 | 0.00 | 0.00 | 0.00 | 64 | 939.7 |
| 20260510040816 | 76 | 128 | 5.2 | 10.4 | 0.00 | 0.00 | 0.00 | 64 | 939.7 |
| 20260510040715 | 76 | 116 | 4.3 | 10.4 | 0.00 | 0.00 | 0.00 | 64 | 939.8 |
| 20260510040616 | 76 | 105 | 4.3 | 10.4 | 0.00 | 0.00 | 0.00 | 64 | 939.7 |
| 20260510040516 | 76 | 141 | 4.3 | 10.4 | 0.00 | 0.00 | 0.00 | 63 | 939.7 |
| 20260510040416 | 76 | 166 | 4.3 | 10.4 | 0.00 | 0.00 | 0.00 | 64 | 939.7 |
| 20260510040345 | 76 | 120 | 4.3 | 10.4 | 0.00 | 0.00 | 0.00 | 63 | 939.7 |
| 20260510040209 | 76 | 131 | 4.3 | 8.7 | 0.00 | 0.00 | 0.00 | 63 | 939.7 |
| 20260510040110 | 76 | 150 | 4.3 | 8.7 | 0.00 | 0.00 | 0.00 | 63 | 939.7 |
| 20260510040009 | 76 | 159 | 4.3 | 8.7 | 0.00 | 0.00 | 0.00 | 63 | 939.7 |
| 20260510035909 | 76 | 136 | 4.3 | 8.7 | 0.00 | 0.00 | 0.00 | 63 | 939.7 |
| 20260510035805 | 76 | 150 | 4.3 | 8.7 | 0.00 | 0.00 | 0.00 | 62 | 939.8 |
| 20260510035704 | 76 | 144 | 4.3 | 8.7 | 0.00 | 0.00 | 0.00 | 62 | 939.8 |
| 20260510035604 | 76 | 150 | 5.2 | 8.7 | 0.00 | 0.00 | 0.00 | 62 | 939.8 |
| 20260510035504 | 76 | 146 | 5.2 | 8.7 | 0.00 | 0.00 | 0.00 | 62 | 939.8 |
| 20260510035404 | 76 | 133 | 4.3 | 8.7 | 0.00 | 0.00 | 0.00 | 61 | 939.8 |
| 20260510035258 | 77 | 114 | 4.3 | 8.7 | 0.00 | 0.00 | 0.00 | 61 | 939.8 |
| 20260510035159 | 77 | 155 | 4.3 | 13.0 | 0.00 | 0.00 | 0.00 | 61 | 939.8 |
| 20260510035058 | 77 | 115 | 5.2 | 13.0 | 0.00 | 0.00 | 0.00 | 61 | 939.7 |
| 20260510034957 | 77 | 130 | 5.2 | 13.0 | 0.00 | 0.00 | 0.00 | 61 | 939.7 |
| 20260510034858 | 77 | 117 | 5.2 | 13.0 | 0.00 | 0.00 | 0.00 | 60 | 939.7 |
| 20260510034755 | 77 | 111 | 5.2 | 13.0 | 0.00 | 0.00 | 0.00 | 60 | 939.8 |
| 20260510034651 | 77 | 144 | 5.2 | 13.0 | 0.00 | 0.00 | 0.00 | 60 | 939.7 |
| 20260510034552 | 77 | 146 | 5.2 | 13.0 | 0.00 | 0.00 | 0.00 | 60 | 939.7 |
| 20260510034451 | 77 | 133 | 5.2 | 13.0 | 0.00 | 0.00 | 0.00 | 60 | 939.7 |
| 20260510034352 | 77 | 158 | 5.2 | 13.0 | 0.00 | 0.00 | 0.00 | 60 | 939.7 |
| 20260510034247 | 77 | 121 | 6.1 | 13.0 | 0.00 | 0.00 | 0.00 | 60 | 939.7 |
| 20260510034148 | 77 | 133 | 5.2 | 12.2 | 0.00 | 0.00 | 0.00 | 60 | 939.7 |
| 20260510034047 | 77 | 161 | 5.2 | 11.3 | 0.00 | 0.00 | 0.00 | 60 | 939.7 |
| 20260510033948 | 78 | 128 | 6.1 | 11.3 | 0.00 | 0.00 | 0.00 | 59 | 939.7 |
| 20260510033846 | 77 | 153 | 6.1 | 11.3 | 0.00 | 0.00 | 0.00 | 59 | 939.7 |
| 20260510033742 | 77 | 165 | 5.2 | 11.3 | 0.00 | 0.00 | 0.00 | 59 | 939.7 |
| 20260510033640 | 77 | 163 | 5.2 | 11.3 | 0.00 | 0.00 | 0.00 | 59 | 939.7 |
| 20260510033540 | 78 | 134 | 5.2 | 11.3 | 0.00 | 0.00 | 0.00 | 59 | 939.7 |
| 20260510033439 | 77 | 157 | 5.2 | 11.3 | 0.00 | 0.00 | 0.00 | 59 | 939.7 |
| 20260510033340 | 78 | 151 | 5.2 | 11.3 | 0.00 | 0.00 | 0.00 | 59 | 939.7 |
| 20260510033234 | 78 | 143 | 5.2 | 11.3 | 0.00 | 0.00 | 0.00 | 59 | 939.8 |
| 20260510033133 | 78 | 154 | 5.2 | 11.3 | 0.00 | 0.00 | 0.00 | 59 | 939.7 |
| 20260510033034 | 78 | 144 | 5.2 | 11.3 | 0.00 | 0.00 | 0.00 | 59 | 939.8 |
| 20260510032935 | 78 | 139 | 5.2 | 11.3 | 0.00 | 0.00 | 0.00 | 59 | 939.8 |
| 20260510032834 | 78 | 128 | 5.2 | 11.3 | 0.00 | 0.00 | 0.00 | 58 | 939.8 |
| 20260510032728 | 78 | 161 | 5.2 | 11.3 | 0.00 | 0.00 | 0.00 | 58 | 939.8 |
| 20260510032627 | 78 | 170 | 5.2 | 10.4 | 0.00 | 0.00 | 0.00 | 58 | 939.8 |
| 20260510032529 | 78 | 137 | 5.2 | 10.4 | 0.00 | 0.00 | 0.00 | 58 | 939.8 |
| 20260510032427 | 78 | 170 | 5.2 | 10.4 | 0.00 | 0.00 | 0.00 | 58 | 939.8 |
| 20260510032328 | 78 | 153 | 5.2 | 10.4 | 0.00 | 0.00 | 0.00 | 58 | 939.8 |
| 20260510032221 | 78 | 167 | 5.2 | 10.4 | 0.00 | 0.00 | 0.00 | 58 | 939.8 |
| 20260510032123 | 78 | 167 | 5.2 | 11.3 | 0.00 | 0.00 | 0.00 | 58 | 939.8 |
| 20260510032022 | 78 | 144 | 5.2 | 11.3 | 0.00 | 0.00 | 0.00 | 58 | 939.8 |
| 20260510031922 | 78 | 143 | 5.2 | 11.3 | 0.00 | 0.00 | 0.00 | 58 | 939.8 |
| 20260510031822 | 78 | 123 | 5.2 | 11.3 | 0.00 | 0.00 | 0.00 | 57 | 939.9 |
| 20260510031716 | 78 | 155 | 5.2 | 11.3 | 0.00 | 0.00 | 0.00 | 57 | 939.8 |
| 20260510031616 | 78 | 150 | 5.2 | 11.3 | 0.00 | 0.00 | 0.00 | 57 | 939.8 |
| 20260510031516 | 78 | 151 | 5.2 | 11.3 | 0.00 | 0.00 | 0.00 | 57 | 939.8 |
| 20260510031416 | 78 | 137 | 5.2 | 11.3 | 0.00 | 0.00 | 0.00 | 57 | 939.8 |
| 20260510031316 | 78 | 155 | 6.1 | 11.3 | 0.00 | 0.00 | 0.00 | 57 | 939.8 |
| 20260510031212 | 78 | 173 | 5.2 | 11.3 | 0.00 | 0.00 | 0.00 | 57 | 939.8 |
| 20260510031110 | 78 | 139 | 5.2 | 10.4 | 0.00 | 0.00 | 0.00 | 57 | 939.8 |
| 20260510031009 | 78 | 190 | 5.2 | 10.4 | 0.00 | 0.00 | 0.00 | 57 | 939.7 |
| 20260510030909 | 78 | 154 | 5.2 | 11.3 | 0.00 | 0.00 | 0.00 | 57 | 939.7 |
| 20260510030810 | 77 | 159 | 5.2 | 11.3 | 0.00 | 0.00 | 0.00 | 57 | 939.7 |
| 20260510030703 | 77 | 160 | 5.2 | 11.3 | 0.00 | 0.00 | 0.00 | 57 | 939.7 |
| 20260510030603 | 77 | 161 | 5.2 | 11.3 | 0.00 | 0.00 | 0.00 | 57 | 939.8 |
| 20260510030504 | 77 | 142 | 5.2 | 11.3 | 0.00 | 0.00 | 0.00 | 57 | 939.7 |
| 20260510030404 | 77 | 142 | 5.2 | 11.3 | 0.00 | 0.00 | 0.00 | 57 | 939.7 |
| 20260510030304 | 77 | 117 | 5.2 | 11.3 | 0.00 | 0.00 | 0.00 | 57 | 939.8 |
| 20260510030158 | 77 | 155 | 5.2 | 11.3 | 0.00 | 0.00 | 0.00 | 57 | 939.7 |
| 20260510030059 | 77 | 174 | 5.2 | 11.3 | 0.00 | 0.00 | 0.00 | 57 | 939.7 |
| 20260510025957 | 76 | 128 | 4.3 | 9.6 | 0.00 | 0.00 | 0.00 | 57 | 939.7 |
| 20260510025858 | 76 | 160 | 4.3 | 9.6 | 0.00 | 0.00 | 0.00 | 57 | 939.7 |
| 20260510025758 | 76 | 171 | 4.3 | 9.6 | 0.00 | 0.00 | 0.00 | 57 | 939.7 |
| 20260510025727 | 76 | 119 | 4.3 | 9.6 | 0.00 | 0.00 | 0.00 | 57 | 939.7 |
| 20260510025553 | 76 | 157 | 4.3 | 9.6 | 0.00 | 0.00 | 0.00 | 56 | 939.6 |
| 20260510025452 | 76 | 136 | 4.3 | 7.8 | 0.00 | 0.00 | 0.00 | 56 | 939.6 |
| 20260510025352 | 76 | 151 | 4.3 | 7.8 | 0.00 | 0.00 | 0.00 | 56 | 939.6 |
| 20260510025253 | 76 | 128 | 3.5 | 7.8 | 0.00 | 0.00 | 0.00 | 56 | 939.6 |
| 20260510025146 | 76 | 161 | 3.5 | 7.0 | 0.00 | 0.00 | 0.00 | 55 | 939.6 |
| 20260510025045 | 77 | 136 | 3.5 | 7.0 | 0.00 | 0.00 | 0.00 | 55 | 939.6 |
| 20260510024947 | 77 | 141 | 3.5 | 7.0 | 0.00 | 0.00 | 0.00 | 55 | 939.6 |
| 20260510024846 | 77 | 137 | 3.5 | 7.0 | 0.00 | 0.00 | 0.00 | 55 | 939.6 |
| 20260510024746 | 77 | 128 | 3.5 | 7.0 | 0.00 | 0.00 | 0.00 | 55 | 939.6 |
| 20260510024639 | 77 | 147 | 3.5 | 7.0 | 0.00 | 0.00 | 0.00 | 55 | 939.6 |
| 20260510024539 | 77 | 141 | 3.5 | 7.0 | 0.00 | 0.00 | 0.00 | 54 | 939.6 |
| 20260510024440 | 77 | 134 | 3.5 | 7.0 | 0.00 | 0.00 | 0.00 | 54 | 939.6 |
| 20260510024339 | 77 | 152 | 3.5 | 7.0 | 0.00 | 0.00 | 0.00 | 54 | 939.5 |
| 20260510024240 | 77 | 166 | 3.5 | 7.0 | 0.00 | 0.00 | 0.00 | 54 | 939.5 |
| 20260510024135 | 77 | 107 | 3.5 | 7.0 | 0.00 | 0.00 | 0.00 | 53 | 939.5 |
| 20260510024035 | 78 | 124 | 3.5 | 7.0 | 0.00 | 0.00 | 0.00 | 53 | 939.5 |
| 20260510023935 | 78 | 178 | 3.5 | 7.0 | 0.00 | 0.00 | 0.00 | 53 | 939.5 |
| 20260510023835 | 78 | 151 | 3.5 | 7.0 | 0.00 | 0.00 | 0.00 | 53 | 939.5 |
| 20260510023734 | 78 | 184 | 3.5 | 7.0 | 0.00 | 0.00 | 0.00 | 52 | 939.4 |
| 20260510023627 | 78 | 148 | 3.5 | 7.0 | 0.00 | 0.00 | 0.00 | 52 | 939.4 |
| 20260510023528 | 78 | 164 | 3.5 | 7.0 | 0.00 | 0.00 | 0.00 | 52 | 939.5 |
| 20260510023428 | 78 | 128 | 3.5 | 7.0 | 0.00 | 0.00 | 0.00 | 52 | 939.5 |
| 20260510023327 | 78 | 120 | 3.5 | 7.0 | 0.00 | 0.00 | 0.00 | 51 | 939.4 |
| 20260510023228 | 79 | 139 | 4.3 | 7.0 | 0.00 | 0.00 | 0.00 | 51 | 939.4 |
| 20260510023121 | 79 | 144 | 4.3 | 7.8 | 0.00 | 0.00 | 0.00 | 51 | 939.4 |
| 20260510023022 | 79 | 138 | 4.3 | 7.8 | 0.00 | 0.00 | 0.00 | 51 | 939.4 |
| 20260510022922 | 79 | 142 | 4.3 | 7.8 | 0.00 | 0.00 | 0.00 | 51 | 939.3 |
| 20260510022821 | 79 | 146 | 4.3 | 7.8 | 0.00 | 0.00 | 0.00 | 51 | 939.3 |
| 20260510022722 | 80 | 155 | 4.3 | 7.8 | 0.00 | 0.00 | 0.00 | 50 | 939.3 |
| 20260510022616 | 80 | 186 | 4.3 | 8.7 | 0.00 | 0.00 | 0.00 | 50 | 939.4 |
| 20260510022515 | 80 | 166 | 4.3 | 8.7 | 0.00 | 0.00 | 0.00 | 50 | 939.3 |
| 20260510022415 | 80 | 132 | 4.3 | 8.7 | 0.00 | 0.00 | 0.00 | 49 | 939.4 |
| 20260510022316 | 80 | 137 | 4.3 | 8.7 | 0.00 | 0.00 | 0.00 | 49 | 939.4 |
| 20260510022216 | 80 | 119 | 4.3 | 8.7 | 0.00 | 0.00 | 0.00 | 49 | 939.4 |
| 20260510022009 | 80 | 121 | 3.5 | 8.7 | 0.00 | 0.00 | 0.00 | 49 | 939.3 |
| 20260510021910 | 80 | 127 | 3.5 | 8.7 | 0.00 | 0.00 | 0.00 | 49 | 939.3 |
| 20260510021809 | 80 | 167 | 3.5 | 8.7 | 0.00 | 0.00 | 0.00 | 49 | 939.3 |
| 20260510021710 | 80 | 175 | 3.5 | 8.7 | 0.00 | 0.00 | 0.00 | 49 | 939.3 |
| 20260510021604 | 80 | 191 | 3.5 | 7.8 | 0.00 | 0.00 | 0.00 | 49 | 939.2 |
| 20260510021504 | 80 | 165 | 3.5 | 7.8 | 0.00 | 0.00 | 0.00 | 49 | 939.2 |
| 20260510021405 | 80 | 135 | 3.5 | 7.8 | 0.00 | 0.00 | 0.00 | 49 | 939.2 |
| 20260510021303 | 80 | 163 | 3.5 | 7.8 | 0.00 | 0.00 | 0.00 | 49 | 939.2 |
| 20260510021222 | 80 | 159 | 4.3 | 8.7 | 0.00 | 0.00 | 0.00 | 49 | 939.2 |
| 20260510021058 | 80 | 161 | 4.3 | 8.7 | 0.00 | 0.00 | 0.00 | 49 | 939.1 |
| 20260510020957 | 80 | 130 | 4.3 | 8.7 | 0.00 | 0.00 | 0.00 | 49 | 939.1 |
| 20260510020858 | 80 | 138 | 4.3 | 8.7 | 0.00 | 0.00 | 0.00 | 48 | 939.1 |
| 20260510020757 | 80 | 146 | 3.5 | 8.7 | 0.00 | 0.00 | 0.00 | 49 | 939.1 |
| 20260510020658 | 80 | 173 | 3.5 | 8.7 | 0.00 | 0.00 | 0.00 | 49 | 939.1 |
| 20260510020551 | 80 | 156 | 4.3 | 8.7 | 0.00 | 0.00 | 0.00 | 49 | 939.1 |
| 20260510020451 | 80 | 158 | 4.3 | 8.7 | 0.00 | 0.00 | 0.00 | 49 | 939.0 |
| 20260510020352 | 80 | 179 | 4.3 | 8.7 | 0.00 | 0.00 | 0.00 | 49 | 939.0 |
| 20260510020252 | 80 | 125 | 4.3 | 8.7 | 0.00 | 0.00 | 0.00 | 49 | 938.9 |
| 20260510020152 | 80 | 155 | 4.3 | 8.7 | 0.00 | 0.00 | 0.00 | 49 | 938.9 |
| 20260510020048 | 80 | 138 | 4.3 | 8.7 | 0.00 | 0.00 | 0.00 | 49 | 938.9 |
| 20260510015945 | 80 | 136 | 4.3 | 8.7 | 0.00 | 0.00 | 0.00 | 49 | 938.9 |
| 20260510015845 | 80 | 142 | 4.3 | 8.7 | 0.00 | 0.00 | 0.00 | 49 | 938.9 |
| 20260510015746 | 80 | 163 | 4.3 | 8.7 | 0.00 | 0.00 | 0.00 | 49 | 938.8 |
| 20260510015646 | 80 | 134 | 4.3 | 8.7 | 0.00 | 0.00 | 0.00 | 49 | 938.8 |
| 20260510015540 | 80 | 133 | 4.3 | 8.7 | 0.00 | 0.00 | 0.00 | 49 | 938.8 |
| 20260510015440 | 80 | 130 | 4.3 | 8.7 | 0.00 | 0.00 | 0.00 | 49 | 938.8 |
| 20260510015340 | 80 | 171 | 4.3 | 8.7 | 0.00 | 0.00 | 0.00 | 49 | 938.8 |
| 20260510015241 | 80 | 122 | 3.5 | 8.7 | 0.00 | 0.00 | 0.00 | 49 | 938.7 |
| 20260510015139 | 80 | 163 | 3.5 | 8.7 | 0.00 | 0.00 | 0.00 | 49 | 938.7 |
| 20260510015034 | 80 | 103 | 3.5 | 8.7 | 0.00 | 0.00 | 0.00 | 49 | 938.8 |
| 20260510014934 | 80 | 137 | 3.5 | 8.7 | 0.00 | 0.00 | 0.00 | 48 | 938.8 |
| 20260510014834 | 80 | 151 | 3.5 | 8.7 | 0.00 | 0.00 | 0.00 | 48 | 938.8 |
| 20260510014734 | 80 | 133 | 3.5 | 7.0 | 0.00 | 0.00 | 0.00 | 48 | 938.8 |
| 20260510014634 | 80 | 169 | 3.5 | 7.0 | 0.00 | 0.00 | 0.00 | 49 | 938.7 |
| 20260510014530 | 80 | 144 | 3.5 | 5.2 | 0.00 | 0.00 | 0.00 | 48 | 938.8 |
| 20260510014427 | 80 | 153 | 3.5 | 5.2 | 0.00 | 0.00 | 0.00 | 48 | 938.8 |
| 20260510014328 | 80 | 137 | 3.5 | 5.2 | 0.00 | 0.00 | 0.00 | 47 | 938.8 |
| 20260510014228 | 81 | 130 | 3.5 | 6.1 | 0.00 | 0.00 | 0.00 | 48 | 938.8 |
| 20260510014127 | 81 | 152 | 3.5 | 6.1 | 0.00 | 0.00 | 0.00 | 48 | 938.8 |
| 20260510014022 | 81 | 134 | 3.5 | 6.1 | 0.00 | 0.00 | 0.00 | 47 | 938.8 |
| 20260510013922 | 81 | 157 | 3.5 | 6.1 | 0.00 | 0.00 | 0.00 | 46 | 938.8 |
| 20260510013822 | 81 | 148 | 3.5 | 6.1 | 0.00 | 0.00 | 0.00 | 46 | 938.8 |
| 20260510013721 | 81 | 174 | 3.5 | 6.1 | 0.00 | 0.00 | 0.00 | 46 | 938.8 |
| 20260510013622 | 81 | 174 | 3.5 | 6.1 | 0.00 | 0.00 | 0.00 | 46 | 938.8 |
| 20260510013519 | 81 | 156 | 3.5 | 6.1 | 0.00 | 0.00 | 0.00 | 46 | 938.8 |
| 20260510013420 | 81 | 154 | 3.5 | 6.1 | 0.00 | 0.00 | 0.00 | 45 | 938.7 |
| 20260510013317 | 81 | 173 | 3.5 | 6.1 | 0.00 | 0.00 | 0.00 | 45 | 938.8 |
| 20260510013225 | 82 | 166 | 3.5 | 6.1 | 0.00 | 0.00 | 0.00 | 45 | 938.7 |
| 20260510013207 | 82 | 152 | 3.5 | 6.1 | 0.00 | 0.00 | 0.00 | 45 | 938.7 |
| 20260510013018 | 82 | 162 | 3.5 | 6.1 | 0.00 | 0.00 | 0.00 | 45 | 938.7 |
| 20260510012917 | 82 | 169 | 3.5 | 5.2 | 0.00 | 0.00 | 0.00 | 45 | 938.7 |
| 20260510012817 | 82 | 171 | 3.5 | 5.2 | 0.00 | 0.00 | 0.00 | 45 | 938.7 |
| 20260510012726 | 82 | 168 | 3.5 | 5.2 | 0.00 | 0.00 | 0.00 | 44 | 938.7 |
| 20260510012709 | 82 | 132 | 3.5 | 5.2 | 0.00 | 0.00 | 0.00 | 44 | 938.7 |
| 20260510012517 | 82 | 171 | 3.5 | 5.2 | 0.00 | 0.00 | 0.00 | 44 | 938.7 |
| 20260510012419 | 83 | 159 | 3.5 | 5.2 | 0.00 | 0.00 | 0.00 | 44 | 938.7 |
| 20260510012317 | 83 | 169 | 3.5 | 5.2 | 0.00 | 0.00 | 0.00 | 44 | 938.6 |
| 20260510012224 | 83 | 150 | 3.5 | 5.2 | 0.00 | 0.00 | 0.00 | 43 | 938.6 |
| 20260510012206 | 83 | 155 | 3.5 | 5.2 | 0.00 | 0.00 | 0.00 | 43 | 938.7 |
| 20260510012016 | 83 | 142 | 3.5 | 5.2 | 0.00 | 0.00 | 0.00 | 43 | 938.6 |
| 20260510011915 | 83 | 170 | 3.5 | 7.0 | 0.00 | 0.00 | 0.00 | 43 | 938.6 |
| 20260510011815 | 83 | 201 | 3.5 | 7.0 | 0.00 | 0.00 | 0.00 | 43 | 938.6 |
| 20260510011726 | 83 | 176 | 3.5 | 7.0 | 0.00 | 0.00 | 0.00 | 43 | 938.6 |
| 20260510011706 | 83 | 144 | 3.5 | 7.0 | 0.00 | 0.00 | 0.00 | 42 | 938.6 |
| 20260510011516 | 84 | 165 | 3.5 | 7.0 | 0.00 | 0.00 | 0.00 | 42 | 938.6 |
| 20260510011414 | 84 | 159 | 3.5 | 7.0 | 0.00 | 0.00 | 0.00 | 42 | 938.6 |
| 20260510011315 | 84 | 184 | 3.5 | 7.0 | 0.00 | 0.00 | 0.00 | 42 | 938.6 |
| 20260510011214 | 84 | 155 | 3.5 | 7.0 | 0.00 | 0.00 | 0.00 | 42 | 938.6 |
| 20260510011116 | 84 | 148 | 3.5 | 7.0 | 0.00 | 0.00 | 0.00 | 42 | 938.6 |
| 20260510011016 | 84 | 161 | 3.5 | 7.0 | 0.00 | 0.00 | 0.00 | 41 | 938.6 |
| 20260510010916 | 85 | 158 | 3.5 | 6.1 | 0.00 | 0.00 | 0.00 | 41 | 938.6 |
| 20260510010815 | 85 | 169 | 3.5 | 6.1 | 0.00 | 0.00 | 0.00 | 42 | 938.6 |
| 20260510010715 | 85 | 167 | 3.5 | 6.1 | 0.00 | 0.00 | 0.00 | 41 | 938.6 |
| 20260510010615 | 85 | 163 | 3.5 | 6.1 | 0.00 | 0.00 | 0.00 | 41 | 938.6 |
| 20260510010516 | 85 | 162 | 3.5 | 5.2 | 0.00 | 0.00 | 0.00 | 41 | 938.6 |
| 20260510010411 | 85 | 161 | 3.5 | 6.1 | 0.00 | 0.00 | 0.00 | 40 | 938.6 |
| 20260510010311 | 85 | 178 | 3.5 | 6.1 | 0.00 | 0.00 | 0.00 | 40 | 938.6 |
| 20260510010212 | 85 | 171 | 3.5 | 6.1 | 0.00 | 0.00 | 0.00 | 40 | 938.6 |
| 20260510010111 | 86 | 169 | 3.5 | 6.1 | 0.00 | 0.00 | 0.00 | 40 | 938.6 |
| 20260510010010 | 86 | 163 | 3.5 | 6.1 | 0.00 | 0.00 | 0.00 | 40 | 938.6 |
| 20260510005912 | 86 | 165 | 3.5 | 6.1 | 0.00 | 0.00 | 0.00 | 39 | 938.6 |
| 20260510005810 | 86 | 176 | 3.5 | 6.1 | 0.00 | 0.00 | 0.00 | 40 | 938.6 |
| 20260510005712 | 86 | 155 | 3.5 | 6.1 | 0.00 | 0.00 | 0.00 | 39 | 938.6 |
| 20260510005612 | 86 | 169 | 3.5 | 6.1 | 0.00 | 0.00 | 0.00 | 39 | 938.6 |
| 20260510005512 | 86 | 175 | 3.5 | 6.1 | 0.00 | 0.00 | 0.00 | 39 | 938.6 |
| 20260510005411 | 86 | 179 | 3.5 | 6.1 | 0.00 | 0.00 | 0.00 | 39 | 938.6 |
| 20260510005311 | 86 | 169 | 3.5 | 6.1 | 0.00 | 0.00 | 0.00 | 38 | 938.6 |
| 20260510005211 | 87 | 185 | 3.5 | 6.1 | 0.00 | 0.00 | 0.00 | 39 | 938.6 |
| 20260510005112 | 87 | 193 | 3.5 | 6.1 | 0.00 | 0.00 | 0.00 | 38 | 938.6 |
| 20260510005012 | 87 | 181 | 3.5 | 6.1 | 0.00 | 0.00 | 0.00 | 38 | 938.6 |
| 20260510004911 | 87 | 186 | 3.5 | 6.1 | 0.00 | 0.00 | 0.00 | 38 | 938.6 |
| 20260510004811 | 87 | 186 | 3.5 | 6.1 | 0.00 | 0.00 | 0.00 | 38 | 938.7 |
| 20260510004712 | 87 | 150 | 3.5 | 6.1 | 0.00 | 0.00 | 0.00 | 37 | 938.6 |
| 20260510004612 | 87 | 168 | 3.5 | 6.1 | 0.00 | 0.00 | 0.00 | 38 | 938.6 |
| 20260510004507 | 87 | 176 | 3.5 | 6.1 | 0.00 | 0.00 | 0.00 | 37 | 938.6 |
| 20260510004406 | 87 | 160 | 3.5 | 6.1 | 0.00 | 0.00 | 0.00 | 37 | 938.6 |
| 20260510004308 | 87 | 192 | 3.5 | 8.7 | 0.00 | 0.00 | 0.00 | 37 | 938.6 |
| 20260510004207 | 87 | 135 | 3.5 | 8.7 | 0.00 | 0.00 | 0.00 | 37 | 938.6 |
| 20260510004109 | 87 | 165 | 3.5 | 8.7 | 0.00 | 0.00 | 0.00 | 37 | 938.6 |
| 20260510004007 | 88 | 154 | 3.5 | 8.7 | 0.00 | 0.00 | 0.00 | 37 | 938.6 |
| 20260510003941 | 88 | 183 | 4.3 | 8.7 | 0.00 | 0.00 | 0.00 | 37 | 938.5 |
| 20260510003808 | 88 | 165 | 4.3 | 8.7 | 0.00 | 0.00 | 0.00 | 36 | 938.5 |
| 20260510003720 | 88 | 155 | 4.3 | 8.7 | 0.00 | 0.00 | 0.00 | 36 | 938.5 |
| 20260510003705 | 88 | 182 | 4.3 | 8.7 | 0.00 | 0.00 | 0.00 | 37 | 938.5 |
| 20260510003507 | 88 | 155 | 4.3 | 8.7 | 0.00 | 0.00 | 0.00 | 36 | 938.5 |
| 20260510003407 | 88 | 165 | 4.3 | 8.7 | 0.00 | 0.00 | 0.00 | 36 | 938.5 |
| 20260510003307 | 88 | 157 | 4.3 | 7.0 | 0.00 | 0.00 | 0.00 | 35 | 938.5 |
| 20260510003207 | 88 | 169 | 4.3 | 7.0 | 0.00 | 0.00 | 0.00 | 36 | 938.5 |
| 20260510003106 | 88 | 194 | 4.3 | 7.0 | 0.00 | 0.00 | 0.00 | 36 | 938.5 |
| 20260510003007 | 88 | 187 | 4.3 | 8.7 | 0.00 | 0.00 | 0.00 | 36 | 938.5 |
| 20260510002906 | 88 | 156 | 4.3 | 8.7 | 0.00 | 0.00 | 0.00 | 35 | 938.6 |
| 20260510002807 | 88 | 161 | 4.3 | 8.7 | 0.00 | 0.00 | 0.00 | 35 | 938.6 |
| 20260510002708 | 89 | 181 | 4.3 | 8.7 | 0.00 | 0.00 | 0.00 | 35 | 938.6 |
| 20260510002604 | 89 | 161 | 4.3 | 8.7 | 0.00 | 0.00 | 0.00 | 35 | 938.6 |
| 20260510002504 | 89 | 156 | 4.3 | 8.7 | 0.00 | 0.00 | 0.00 | 34 | 938.6 |
| 20260510002404 | 89 | 186 | 4.3 | 8.7 | 0.00 | 0.00 | 0.00 | 34 | 938.6 |
| 20260510002306 | 89 | 183 | 4.3 | 8.7 | 0.00 | 0.00 | 0.00 | 33 | 938.6 |
| 20260510002220 | 89 | 152 | 4.3 | 8.7 | 0.00 | 0.00 | 0.00 | 34 | 938.6 |
| 20260510002204 | 89 | 153 | 4.3 | 8.7 | 0.00 | 0.00 | 0.00 | 35 | 938.6 |
| 20260510002004 | 89 | 194 | 4.3 | 9.6 | 0.00 | 0.00 | 0.00 | 34 | 938.6 |
| 20260510001903 | 89 | 196 | 4.3 | 9.6 | 0.00 | 0.00 | 0.00 | 33 | 938.6 |
| 20260510001803 | 89 | 186 | 4.3 | 9.6 | 0.00 | 0.00 | 0.00 | 35 | 938.6 |
| 20260510001721 | 89 | 190 | 4.3 | 9.6 | 0.00 | 0.00 | 0.00 | 34 | 938.6 |
| 20260510001704 | 89 | 159 | 4.3 | 9.6 | 0.00 | 0.00 | 0.00 | 34 | 938.6 |
| 20260510001503 | 89 | 205 | 5.2 | 9.6 | 0.00 | 0.00 | 0.00 | 34 | 938.6 |
| 20260510001403 | 89 | 190 | 5.2 | 9.6 | 0.00 | 0.00 | 0.00 | 35 | 938.6 |
| 20260510001303 | 89 | 184 | 5.2 | 9.6 | 0.00 | 0.00 | 0.00 | 34 | 938.6 |
| 20260510001204 | 89 | 180 | 4.3 | 9.6 | 0.00 | 0.00 | 0.00 | 34 | 938.6 |
| 20260510001104 | 89 | 166 | 4.3 | 9.6 | 0.00 | 0.00 | 0.00 | 34 | 938.6 |
| 20260510001003 | 89 | 187 | 4.3 | 8.7 | 0.00 | 0.00 | 0.00 | 35 | 938.6 |
| 20260510000903 | 89 | 168 | 4.3 | 8.7 | 0.00 | 0.00 | 0.00 | 34 | 938.6 |
| 20260510000804 | 89 | 192 | 5.2 | 8.7 | 0.00 | 0.00 | 0.00 | 34 | 938.6 |
| 20260510000659 | 89 | 172 | 5.2 | 9.6 | 0.00 | 0.00 | 0.00 | 36 | 938.6 |
| 20260510000500 | 89 | 208 | 5.2 | 9.6 | 0.00 | 0.00 | 0.00 | 35 | 938.6 |
| 20260510000359 | 89 | 192 | 6.1 | 9.6 | 0.00 | 0.00 | 0.00 | 34 | 938.6 |
| 20260510000259 | 89 | 146 | 6.1 | 9.6 | 0.00 | 0.00 | 0.00 | 35 | 938.6 |
| 20260510000159 | 89 | 182 | 6.1 | 9.6 | 0.00 | 0.00 | 0.00 | 34 | 938.6 |
| 20260510000103 | 89 | 180 | 6.1 | 9.6 | 0.00 | 0.00 | 0.00 | 34 | 938.6 |
| 20260509235959 | 89 | 137 | 6.1 | 9.6 | 0.00 | 0.00 | 0.00 | 34 | 938.6 |
| 20260509235900 | 89 | 192 | 6.1 | 9.6 | 0.00 | 0.00 | 0.00 | 35 | 938.6 |
| 20260509235759 | 89 | 191 | 6.1 | 9.6 | 0.00 | 0.00 | 0.00 | 35 | 938.6 |
| 20260509235700 | 89 | 184 | 5.2 | 9.6 | 0.00 | 0.00 | 0.00 | 34 | 938.6 |
| 20260509235459 | 89 | 183 | 5.2 | 9.6 | 0.00 | 0.00 | 0.00 | 34 | 938.6 |
| 20260509235400 | 89 | 189 | 5.2 | 10.4 | 0.00 | 0.00 | 0.00 | 34 | 938.6 |
| 20260509235259 | 89 | 181 | 5.2 | 10.4 | 0.00 | 0.00 | 0.00 | 35 | 938.6 |
| 20260509235200 | 89 | 202 | 5.2 | 10.4 | 0.00 | 0.00 | 0.00 | 36 | 938.6 |
| 20260509234959 | 89 | 221 | 6.1 | 10.4 | 0.00 | 0.00 | 0.00 | 32 | 938.7 |
| 20260509234900 | 89 | 206 | 6.1 | 10.4 | 0.00 | 0.00 | 0.00 | 33 | 938.6 |
| 20260509234754 | 89 | 219 | 6.1 | 10.4 | 0.00 | 0.00 | 0.00 | 33 | 938.6 |
| 20260509234653 | 90 | 192 | 6.1 | 10.4 | 0.00 | 0.00 | 0.00 | 34 | 938.6 |
| 20260509234553 | 90 | 236 | 6.1 | 10.4 | 0.00 | 0.00 | 0.00 | 33 | 938.6 |
| 20260509234452 | 90 | 203 | 6.1 | 10.4 | 0.00 | 0.00 | 0.00 | 32 | 938.6 |
| 20260509234353 | 90 | 184 | 6.1 | 10.4 | 0.00 | 0.00 | 0.00 | 32 | 938.6 |
| 20260509234248 | 90 | 185 | 6.1 | 10.4 | 0.00 | 0.00 | 0.00 | 32 | 938.6 |
| 20260509234149 | 90 | 203 | 6.1 | 10.4 | 0.00 | 0.00 | 0.00 | 32 | 938.6 |
| 20260509234049 | 90 | 205 | 5.2 | 9.6 | 0.00 | 0.00 | 0.00 | 33 | 938.6 |
| 20260509233948 | 90 | 219 | 5.2 | 9.6 | 0.00 | 0.00 | 0.00 | 34 | 938.6 |
| 20260509233847 | 90 | 240 | 5.2 | 9.6 | 0.00 | 0.00 | 0.00 | 33 | 938.6 |
| 20260509233743 | 90 | 175 | 5.2 | 9.6 | 0.00 | 0.00 | 0.00 | 34 | 938.6 |
| 20260509233643 | 90 | 194 | 5.2 | 9.6 | 0.00 | 0.00 | 0.00 | 33 | 938.6 |
| 20260509233542 | 90 | 201 | 5.2 | 9.6 | 0.00 | 0.00 | 0.00 | 32 | 938.6 |
| 20260509233441 | 90 | 200 | 5.2 | 9.6 | 0.00 | 0.00 | 0.00 | 34 | 938.6 |
| 20260509233341 | 90 | 188 | 5.2 | 9.6 | 0.00 | 0.00 | 0.00 | 34 | 938.6 |
| 20260509233236 | 90 | 190 | 4.3 | 9.6 | 0.00 | 0.00 | 0.00 | 32 | 938.6 |
| 20260509233206 | 90 | 222 | 4.3 | 9.6 | 0.00 | 0.00 | 0.00 | 34 | 938.6 |
| 20260509233036 | 90 | 215 | 4.3 | 9.6 | 0.00 | 0.00 | 0.00 | 32 | 938.7 |
| 20260509232934 | 90 | 202 | 4.3 | 9.6 | 0.00 | 0.00 | 0.00 | 34 | 938.6 |
| 20260509232835 | 90 | 196 | 4.3 | 9.6 | 0.00 | 0.00 | 0.00 | 34 | 938.7 |
| 20260509232729 | 91 | 200 | 4.3 | 9.6 | 0.00 | 0.00 | 0.00 | 35 | 938.6 |
| 20260509232631 | 91 | 223 | 4.3 | 9.6 | 0.00 | 0.00 | 0.00 | 35 | 938.6 |
| 20260509232530 | 91 | 193 | 4.3 | 9.6 | 0.00 | 0.00 | 0.00 | 35 | 938.6 |
| 20260509232430 | 91 | 199 | 4.3 | 8.7 | 0.00 | 0.00 | 0.00 | 33 | 938.6 |
| 20260509232329 | 91 | 157 | 4.3 | 8.7 | 0.00 | 0.00 | 0.00 | 35 | 938.6 |
| 20260509232226 | 91 | 161 | 4.3 | 8.7 | 0.00 | 0.00 | 0.00 | 35 | 938.6 |
| 20260509232126 | 91 | 153 | 4.3 | 8.7 | 0.00 | 0.00 | 0.00 | 35 | 938.6 |
| 20260509232025 | 90 | 171 | 4.3 | 8.7 | 0.00 | 0.00 | 0.00 | 37 | 938.7 |
| 20260509231926 | 90 | 159 | 4.3 | 8.7 | 0.00 | 0.00 | 0.00 | 35 | 938.7 |
| 20260509231824 | 90 | 145 | 3.5 | 8.7 | 0.00 | 0.00 | 0.00 | 33 | 938.7 |
| 20260509231719 | 90 | 177 | 3.5 | 8.7 | 0.00 | 0.00 | 0.00 | 34 | 938.6 |
| 20260509231619 | 90 | 180 | 3.5 | 8.7 | 0.00 | 0.00 | 0.00 | 33 | 938.7 |
| 20260509231519 | 90 | 186 | 3.5 | 9.6 | 0.00 | 0.00 | 0.00 | 34 | 938.7 |
| 20260509231420 | 91 | 204 | 2.6 | 9.6 | 0.00 | 0.00 | 0.00 | 34 | 938.6 |
| 20260509231317 | 90 | 227 | 3.5 | 9.6 | 0.00 | 0.00 | 0.00 | 33 | 938.6 |
| 20260509231210 | 91 | 196 | 3.5 | 9.6 | 0.00 | 0.00 | 0.00 | 34 | 938.7 |
| 20260509231112 | 90 | 242 | 4.3 | 9.6 | 0.00 | 0.00 | 0.00 | 34 | 938.7 |
| 20260509231010 | 90 | 236 | 5.2 | 11.3 | 0.00 | 0.00 | 0.00 | 34 | 938.7 |
| 20260509230911 | 91 | 235 | 5.2 | 11.3 | 0.00 | 0.00 | 0.00 | 34 | 938.7 |
| 20260509230811 | 91 | 234 | 5.2 | 11.3 | 0.00 | 0.00 | 0.00 | 34 | 938.7 |
| 20260509230706 | 91 | 257 | 6.1 | 11.3 | 0.00 | 0.00 | 0.00 | 33 | 938.7 |
| 20260509230607 | 91 | 196 | 5.2 | 11.3 | 0.00 | 0.00 | 0.00 | 35 | 938.7 |
| 20260509230506 | 91 | 203 | 6.1 | 11.3 | 0.00 | 0.00 | 0.00 | 34 | 938.7 |
| 20260509230406 | 91 | 190 | 6.1 | 11.3 | 0.00 | 0.00 | 0.00 | 34 | 938.7 |
| 20260509230305 | 91 | 192 | 6.1 | 11.3 | 0.00 | 0.00 | 0.00 | 34 | 938.7 |
| 20260509230200 | 91 | 192 | 6.1 | 11.3 | 0.00 | 0.00 | 0.00 | 33 | 938.7 |
| 20260509230100 | 91 | 200 | 5.2 | 11.3 | 0.00 | 0.00 | 0.00 | 34 | 938.8 |
| 20260509225959 | 91 | 190 | 5.2 | 8.7 | 0.00 | 0.00 | 0.00 | 34 | 938.7 |
| 20260509225940 | 91 | 206 | 5.2 | 8.7 | 0.00 | 0.00 | 0.00 | 33 | 938.7 |
| 20260509225759 | 91 | 215 | 5.2 | 8.7 | 0.00 | 0.00 | 0.00 | 33 | 938.7 |
| 20260509225713 | 91 | 201 | 5.2 | 8.7 | 0.00 | 0.00 | 0.00 | 34 | 938.7 |
| 20260509225554 | 91 | 221 | 5.2 | 8.7 | 0.00 | 0.00 | 0.00 | 33 | 938.7 |
| 20260509225454 | 91 | 166 | 5.2 | 8.7 | 0.00 | 0.00 | 0.00 | 33 | 938.7 |
| 20260509225353 | 91 | 183 | 4.3 | 8.7 | 0.00 | 0.00 | 0.00 | 32 | 938.8 |
| 20260509225253 | 91 | 188 | 4.3 | 8.7 | 0.00 | 0.00 | 0.00 | 34 | 938.7 |
| 20260509225210 | 91 | 197 | 4.3 | 8.7 | 0.00 | 0.00 | 0.00 | 34 | 938.7 |
| 20260509225049 | 91 | 194 | 4.3 | 8.7 | 0.00 | 0.00 | 0.00 | 33 | 938.7 |
| 20260509224948 | 91 | 117 | 4.3 | 8.7 | 0.00 | 0.00 | 0.00 | 35 | 938.8 |
| 20260509224850 | 91 | 182 | 4.3 | 8.7 | 0.00 | 0.00 | 0.00 | 35 | 938.8 |
| 20260509224747 | 91 | 180 | 4.3 | 8.7 | 0.00 | 0.00 | 0.00 | 34 | 938.8 |
| 20260509224644 | 91 | 194 | 4.3 | 9.6 | 0.00 | 0.00 | 0.00 | 34 | 938.8 |
| 20260509224540 | 91 | 184 | 4.3 | 9.6 | 0.00 | 0.00 | 0.00 | 35 | 938.8 |
| 20260509224441 | 91 | 231 | 4.3 | 9.6 | 0.00 | 0.00 | 0.00 | 32 | 938.7 |
| 20260509224340 | 91 | 240 | 4.3 | 9.6 | 0.00 | 0.00 | 0.00 | 33 | 938.7 |
| 20260509224241 | 91 | 211 | 4.3 | 9.6 | 0.00 | 0.00 | 0.00 | 34 | 938.7 |
| 20260509224134 | 91 | 202 | 4.3 | 9.6 | 0.00 | 0.00 | 0.00 | 30 | 938.7 |
| 20260509224035 | 91 | 175 | 4.3 | 9.6 | 0.00 | 0.00 | 0.00 | 34 | 938.7 |
| 20260509223935 | 91 | 209 | 5.2 | 9.6 | 0.00 | 0.00 | 0.00 | 32 | 938.7 |
| 20260509223833 | 91 | 198 | 5.2 | 9.6 | 0.00 | 0.00 | 0.00 | 33 | 938.7 |
| 20260509223733 | 91 | 190 | 5.2 | 9.6 | 0.00 | 0.00 | 0.00 | 33 | 938.7 |
| 20260509223626 | 91 | 211 | 5.2 | 9.6 | 0.00 | 0.00 | 0.00 | 35 | 938.7 |
| 20260509223528 | 91 | 205 | 4.3 | 9.6 | 0.00 | 0.00 | 0.00 | 36 | 938.6 |
| 20260509223427 | 91 | 224 | 5.2 | 9.6 | 0.00 | 0.00 | 0.00 | 34 | 938.6 |
| 20260509223327 | 91 | 171 | 5.2 | 9.6 | 0.00 | 0.00 | 0.00 | 32 | 938.6 |
| 20260509223226 | 91 | 168 | 5.2 | 9.6 | 0.00 | 0.00 | 0.00 | 33 | 938.7 |
| 20260509223121 | 91 | 240 | 5.2 | 11.3 | 0.00 | 0.00 | 0.00 | 32 | 938.7 |
| 20260509223022 | 91 | 227 | 5.2 | 11.3 | 0.00 | 0.00 | 0.00 | 35 | 938.7 |
| 20260509222922 | 91 | 186 | 5.2 | 11.3 | 0.00 | 0.00 | 0.00 | 35 | 938.6 |
| 20260509222821 | 91 | 195 | 5.2 | 11.3 | 0.00 | 0.00 | 0.00 | 33 | 938.6 |
| 20260509222721 | 91 | 178 | 5.2 | 11.3 | 0.00 | 0.00 | 0.00 | 35 | 938.7 |
| 20260509222615 | 91 | 165 | 5.2 | 11.3 | 0.00 | 0.00 | 0.00 | 34 | 938.7 |
| 20260509222516 | 91 | 213 | 5.2 | 11.3 | 0.00 | 0.00 | 0.00 | 33 | 938.7 |
| 20260509222415 | 91 | 198 | 5.2 | 11.3 | 0.00 | 0.00 | 0.00 | 33 | 938.7 |
| 20260509222316 | 91 | 207 | 5.2 | 11.3 | 0.00 | 0.00 | 0.00 | 37 | 938.7 |
| 20260509222215 | 91 | 185 | 5.2 | 11.3 | 0.00 | 0.00 | 0.00 | 35 | 938.7 |
| 20260509222144 | 91 | 178 | 5.2 | 10.4 | 0.00 | 0.00 | 0.00 | 35 | 938.7 |
| 20260509222009 | 91 | 219 | 5.2 | 10.4 | 0.00 | 0.00 | 0.00 | 34 | 938.7 |
| 20260509221909 | 91 | 207 | 5.2 | 10.4 | 0.00 | 0.00 | 0.00 | 35 | 938.7 |
| 20260509221810 | 91 | 211 | 6.1 | 10.4 | 0.00 | 0.00 | 0.00 | 34 | 938.7 |
| 20260509221708 | 91 | 158 | 6.1 | 13.0 | 0.00 | 0.00 | 0.00 | 33 | 938.7 |
| 20260509221604 | 91 | 166 | 6.1 | 13.0 | 0.00 | 0.00 | 0.00 | 36 | 938.7 |
| 20260509221504 | 91 | 218 | 6.1 | 13.0 | 0.00 | 0.00 | 0.00 | 36 | 938.7 |
| 20260509221404 | 91 | 208 | 6.1 | 13.0 | 0.00 | 0.00 | 0.00 | 34 | 938.7 |
| 20260509221302 | 91 | 188 | 7.0 | 13.0 | 0.00 | 0.00 | 0.00 | 35 | 938.7 |
| 20260509221203 | 91 | 207 | 7.0 | 13.0 | 0.00 | 0.00 | 0.00 | 34 | 938.7 |
| 20260509221058 | 91 | 192 | 6.1 | 13.0 | 0.00 | 0.00 | 0.00 | 37 | 938.7 |
| 20260509220958 | 91 | 184 | 6.1 | 13.0 | 0.00 | 0.00 | 0.00 | 34 | 938.7 |
| 20260509220857 | 91 | 192 | 6.1 | 13.0 | 0.00 | 0.00 | 0.00 | 34 | 938.7 |
| 20260509220758 | 91 | 155 | 6.1 | 13.0 | 0.00 | 0.00 | 0.00 | 35 | 938.7 |
| 20260509220657 | 91 | 178 | 6.1 | 11.3 | 0.00 | 0.00 | 0.00 | 34 | 938.7 |
| 20260509220552 | 91 | 209 | 6.1 | 11.3 | 0.00 | 0.00 | 0.00 | 36 | 938.7 |
| 20260509220451 | 91 | 199 | 6.1 | 11.3 | 0.00 | 0.00 | 0.00 | 35 | 938.7 |
| 20260509220351 | 91 | 215 | 5.2 | 11.3 | 0.00 | 0.00 | 0.00 | 36 | 938.7 |
| 20260509220252 | 91 | 196 | 5.2 | 11.3 | 0.00 | 0.00 | 0.00 | 35 | 938.7 |
| 20260509220151 | 91 | 183 | 5.2 | 11.3 | 0.00 | 0.00 | 0.00 | 37 | 938.7 |
| 20260509220046 | 91 | 178 | 5.2 | 11.3 | 0.00 | 0.00 | 0.00 | 36 | 938.7 |
| 20260509215944 | 91 | 157 | 5.2 | 11.3 | 0.00 | 0.00 | 0.00 | 35 | 938.7 |
| 20260509215846 | 91 | 134 | 5.2 | 11.3 | 0.00 | 0.00 | 0.00 | 37 | 938.7 |
| 20260509215745 | 91 | 132 | 5.2 | 9.6 | 0.00 | 0.00 | 0.00 | 36 | 938.7 |
| 20260509215645 | 91 | 157 | 5.2 | 9.6 | 0.00 | 0.00 | 0.00 | 34 | 938.7 |
| 20260509215540 | 91 | 123 | 5.2 | 11.3 | 0.00 | 0.00 | 0.00 | 36 | 938.8 |
| 20260509215441 | 91 | 178 | 6.1 | 11.3 | 0.00 | 0.00 | 0.00 | 35 | 938.7 |
| 20260509215341 | 91 | 138 | 6.1 | 12.2 | 0.00 | 0.00 | 0.00 | 37 | 938.7 |
| 20260509215241 | 91 | 185 | 6.1 | 12.2 | 0.00 | 0.00 | 0.00 | 37 | 938.8 |
| 20260509215139 | 91 | 145 | 6.1 | 12.2 | 0.00 | 0.00 | 0.00 | 35 | 938.8 |
| 20260509215035 | 91 | 174 | 6.1 | 12.2 | 0.00 | 0.00 | 0.00 | 37 | 938.8 |
| 20260509214934 | 91 | 158 | 6.1 | 12.2 | 0.00 | 0.00 | 0.00 | 37 | 938.8 |
| 20260509214832 | 91 | 169 | 6.1 | 12.2 | 0.00 | 0.00 | 0.00 | 35 | 938.8 |
| 20260509214733 | 91 | 182 | 6.1 | 12.2 | 0.00 | 0.00 | 0.00 | 35 | 938.8 |
| 20260509214633 | 91 | 165 | 6.1 | 12.2 | 0.00 | 0.00 | 0.00 | 36 | 938.8 |
| 20260509214602 | 91 | 203 | 6.1 | 12.2 | 0.00 | 0.00 | 0.00 | 37 | 938.8 |
| 20260509214426 | 91 | 180 | 6.1 | 12.2 | 0.00 | 0.00 | 0.00 | 38 | 938.8 |
| 20260509214327 | 91 | 137 | 6.1 | 11.3 | 0.00 | 0.00 | 0.00 | 39 | 938.8 |
| 20260509214228 | 91 | 193 | 6.1 | 11.3 | 0.00 | 0.00 | 0.00 | 36 | 938.8 |
| 20260509214127 | 91 | 157 | 6.1 | 11.3 | 0.00 | 0.00 | 0.00 | 35 | 938.8 |
| 20260509214022 | 91 | 155 | 6.1 | 11.3 | 0.00 | 0.00 | 0.00 | 37 | 938.8 |
| 20260509213921 | 91 | 173 | 6.1 | 12.2 | 0.00 | 0.00 | 0.00 | 35 | 938.9 |
| 20260509213822 | 91 | 155 | 6.1 | 12.2 | 0.00 | 0.00 | 0.00 | 35 | 938.9 |
| 20260509213721 | 91 | 165 | 6.1 | 12.2 | 0.00 | 0.00 | 0.00 | 35 | 939.0 |
| 20260509213621 | 91 | 144 | 6.1 | 12.2 | 0.00 | 0.00 | 0.00 | 35 | 938.9 |
| 20260509213515 | 91 | 136 | 6.1 | 12.2 | 0.00 | 0.00 | 0.00 | 37 | 938.9 |
| 20260509213416 | 91 | 192 | 6.1 | 12.2 | 0.00 | 0.00 | 0.00 | 37 | 938.9 |
| 20260509213315 | 91 | 190 | 6.1 | 12.2 | 0.00 | 0.00 | 0.00 | 36 | 939.0 |
| 20260509213216 | 91 | 173 | 5.2 | 12.2 | 0.00 | 0.00 | 0.00 | 35 | 939.0 |
| 20260509213115 | 91 | 116 | 5.2 | 12.2 | 0.00 | 0.00 | 0.00 | 36 | 939.0 |
| 20260509213010 | 91 | 186 | 5.2 | 12.2 | 0.00 | 0.00 | 0.00 | 39 | 938.9 |
| 20260509212910 | 91 | 213 | 5.2 | 10.4 | 0.00 | 0.00 | 0.00 | 38 | 939.0 |
| 20260509212809 | 91 | 189 | 5.2 | 10.4 | 0.00 | 0.00 | 0.00 | 40 | 939.0 |
| 20260509212710 | 91 | 215 | 5.2 | 10.4 | 0.00 | 0.00 | 0.00 | 35 | 939.0 |
| 20260509212609 | 91 | 202 | 5.2 | 11.3 | 0.00 | 0.00 | 0.00 | 35 | 939.0 |
| 20260509212504 | 91 | 192 | 5.2 | 11.3 | 0.00 | 0.00 | 0.00 | 35 | 938.9 |
| 20260509212403 | 91 | 200 | 5.2 | 11.3 | 0.00 | 0.00 | 0.00 | 37 | 938.9 |
| 20260509212305 | 91 | 235 | 5.2 | 11.3 | 0.00 | 0.00 | 0.00 | 40 | 939.0 |
| 20260509212202 | 91 | 195 | 5.2 | 11.3 | 0.00 | 0.00 | 0.00 | 39 | 939.0 |
| 20260509212104 | 91 | 192 | 6.1 | 11.3 | 0.00 | 0.00 | 0.00 | 41 | 939.0 |
| 20260509211958 | 91 | 193 | 6.1 | 12.2 | 0.00 | 0.00 | 0.00 | 38 | 939.0 |
| 20260509211900 | 91 | 186 | 5.2 | 12.2 | 0.00 | 0.00 | 0.00 | 37 | 939.1 |
| 20260509211758 | 91 | 196 | 5.2 | 12.2 | 0.00 | 0.00 | 0.00 | 37 | 939.1 |
| 20260509211700 | 91 | 215 | 5.2 | 12.2 | 0.00 | 0.00 | 0.00 | 38 | 939.1 |
| 20260509211557 | 91 | 201 | 5.2 | 12.2 | 0.00 | 0.00 | 0.00 | 39 | 939.1 |
| 20260509211454 | 91 | 193 | 5.2 | 12.2 | 0.00 | 0.00 | 0.00 | 39 | 939.2 |
| 20260509211350 | 91 | 200 | 5.2 | 12.2 | 0.00 | 0.00 | 0.00 | 40 | 939.2 |
| 20260509211251 | 91 | 186 | 4.3 | 12.2 | 0.00 | 0.00 | 0.00 | 38 | 939.2 |
| 20260509211150 | 91 | 186 | 4.3 | 12.2 | 0.00 | 0.00 | 0.00 | 38 | 939.2 |
| 20260509211051 | 91 | 191 | 4.3 | 10.4 | 0.00 | 0.00 | 0.00 | 39 | 939.2 |
| 20260509211020 | 91 | 189 | 4.3 | 7.8 | 0.00 | 0.00 | 0.00 | 41 | 939.2 |
| 20260509210844 | 91 | 189 | 5.2 | 12.2 | 0.00 | 0.00 | 0.00 | 41 | 939.2 |
| 20260509210746 | 91 | 221 | 5.2 | 12.2 | 0.00 | 0.00 | 0.00 | 38 | 939.3 |
| 20260509210644 | 91 | 194 | 5.2 | 12.2 | 0.00 | 0.00 | 0.00 | 36 | 939.3 |
| 20260509210545 | 91 | 160 | 4.3 | 12.2 | 0.00 | 0.00 | 0.00 | 38 | 939.3 |
| 20260509210439 | 91 | 155 | 4.3 | 12.2 | 0.00 | 0.00 | 0.00 | 36 | 939.3 |
| 20260509210340 | 91 | 176 | 4.3 | 12.2 | 0.00 | 0.00 | 0.00 | 36 | 939.3 |
| 20260509210239 | 91 | 117 | 5.2 | 12.2 | 0.00 | 0.00 | 0.00 | 37 | 939.4 |
| 20260509210139 | 91 | 171 | 5.2 | 12.2 | 0.00 | 0.00 | 0.00 | 37 | 939.4 |
| 20260509210039 | 91 | 153 | 5.2 | 12.2 | 0.00 | 0.00 | 0.00 | 37 | 939.4 |
| 20260509210006 | 91 | 167 | 5.2 | 12.2 | 0.00 | 0.00 | 0.00 | 38 | 939.5 |
| 20260509205832 | 91 | 189 | 5.2 | 12.2 | 0.00 | 0.00 | 0.00 | 37 | 939.5 |
| 20260509205733 | 91 | 186 | 6.1 | 12.2 | 0.00 | 0.00 | 0.00 | 37 | 939.5 |
| 20260509205632 | 91 | 240 | 6.1 | 12.2 | 0.00 | 0.00 | 0.00 | 36 | 939.5 |
| 20260509205533 | 91 | 166 | 6.1 | 12.2 | 0.00 | 0.00 | 0.00 | 37 | 939.5 |
| 20260509205502 | 91 | 163 | 6.1 | 12.2 | 0.00 | 0.00 | 0.00 | 37 | 939.5 |
| 20260509205329 | 91 | 184 | 6.1 | 12.2 | 0.00 | 0.00 | 0.00 | 37 | 939.5 |
| 20260509205229 | 91 | 188 | 5.2 | 12.2 | 0.00 | 0.00 | 0.00 | 39 | 939.5 |
| 20260509205130 | 91 | 238 | 5.2 | 12.2 | 0.00 | 0.00 | 0.00 | 38 | 939.6 |
| 20260509205027 | 91 | 137 | 5.2 | 12.2 | 0.00 | 0.00 | 0.00 | 38 | 939.6 |
| 20260509204920 | 91 | 187 | 5.2 | 12.2 | 0.00 | 0.00 | 0.00 | 38 | 939.6 |
| 20260509204820 | 91 | 178 | 5.2 | 11.3 | 0.00 | 0.00 | 0.00 | 39 | 939.6 |
| 20260509204731 | 91 | 107 | 5.2 | 11.3 | 0.00 | 0.00 | 0.00 | 39 | 939.6 |
| 20260509204716 | 91 | 101 | 5.2 | 11.3 | 0.00 | 0.00 | 0.00 | 39 | 939.6 |
| 20260509204521 | 91 | 225 | 5.2 | 11.3 | 0.00 | 0.00 | 0.00 | 40 | 939.6 |
| 20260509204450 | 91 | 205 | 5.2 | 11.3 | 0.00 | 0.00 | 0.00 | 40 | 939.7 |
| 20260509204317 | 91 | 198 | 4.3 | 11.3 | 0.00 | 0.00 | 0.00 | 40 | 939.7 |
| 20260509204217 | 91 | 184 | 4.3 | 11.3 | 0.00 | 0.00 | 0.00 | 40 | 939.7 |
| 20260509204117 | 91 | 189 | 4.3 | 11.3 | 0.00 | 0.00 | 0.00 | 39 | 939.8 |
| 20260509204015 | 91 | 190 | 5.2 | 11.3 | 0.00 | 0.00 | 0.00 | 39 | 939.7 |
| 20260509203909 | 91 | 190 | 4.3 | 10.4 | 0.00 | 0.00 | 0.00 | 39 | 939.7 |
| 20260509203809 | 90 | 203 | 4.3 | 10.4 | 0.00 | 0.00 | 0.00 | 42 | 939.7 |
| 20260509203709 | 90 | 210 | 5.2 | 11.3 | 0.00 | 0.00 | 0.00 | 38 | 939.7 |
| 20260509203610 | 90 | 202 | 5.2 | 11.3 | 0.00 | 0.00 | 0.00 | 41 | 939.8 |
| 20260509203509 | 90 | 205 | 6.1 | 11.3 | 0.00 | 0.00 | 0.00 | 41 | 939.8 |
| 20260509203404 | 90 | 188 | 6.1 | 11.3 | 0.00 | 0.00 | 0.00 | 37 | 939.8 |
| 20260509203302 | 90 | 176 | 6.1 | 11.3 | 0.00 | 0.00 | 0.00 | 38 | 939.8 |
| 20260509203204 | 90 | 164 | 6.1 | 11.3 | 0.00 | 0.00 | 0.00 | 38 | 939.9 |
| 20260509203102 | 90 | 180 | 7.0 | 11.3 | 0.00 | 0.00 | 0.00 | 39 | 939.9 |
| 20260509203003 | 90 | 92 | 7.0 | 11.3 | 0.00 | 0.00 | 0.00 | 38 | 939.9 |
| 20260509202857 | 90 | 138 | 7.0 | 11.3 | 0.00 | 0.00 | 0.00 | 38 | 939.9 |
| 20260509202756 | 90 | 155 | 7.0 | 12.2 | 0.00 | 0.00 | 0.00 | 39 | 940.0 |
| 20260509202657 | 90 | 196 | 6.1 | 12.2 | 0.00 | 0.00 | 0.00 | 41 | 940.0 |
| 20260509202556 | 90 | 200 | 6.1 | 12.2 | 0.00 | 0.00 | 0.00 | 41 | 939.9 |
| 20260509202457 | 90 | 190 | 6.1 | 12.2 | 0.00 | 0.00 | 0.00 | 40 | 940.0 |
| 20260509202351 | 90 | 177 | 5.2 | 12.2 | 0.00 | 0.00 | 0.00 | 42 | 940.0 |
| 20260509202251 | 90 | 183 | 5.2 | 12.2 | 0.00 | 0.00 | 0.00 | 39 | 940.0 |
| 20260509202151 | 90 | 154 | 5.2 | 12.2 | 0.00 | 0.00 | 0.00 | 38 | 940.0 |
| 20260509202051 | 90 | 176 | 5.2 | 12.2 | 0.00 | 0.00 | 0.00 | 38 | 940.0 |
| 20260509201951 | 90 | 151 | 5.2 | 12.2 | 0.00 | 0.00 | 0.00 | 39 | 940.1 |
| 20260509201848 | 90 | 183 | 4.3 | 12.2 | 0.00 | 0.00 | 0.00 | 39 | 940.0 |
| 20260509201746 | 90 | 250 | 4.3 | 11.3 | 0.00 | 0.00 | 0.00 | 39 | 940.0 |
| 20260509201647 | 90 | 170 | 5.2 | 11.3 | 0.00 | 0.00 | 0.00 | 39 | 940.1 |
| 20260509201547 | 90 | 213 | 5.2 | 11.3 | 0.00 | 0.00 | 0.00 | 40 | 940.1 |
| 20260509201445 | 90 | 211 | 6.1 | 11.3 | 0.00 | 0.00 | 0.00 | 39 | 940.1 |
| 20260509201341 | 90 | 186 | 6.1 | 11.3 | 0.00 | 0.00 | 0.00 | 42 | 940.1 |
| 20260509201238 | 90 | 214 | 6.1 | 11.3 | 0.00 | 0.00 | 0.00 | 40 | 940.1 |
| 20260509201140 | 89 | 192 | 6.1 | 11.3 | 0.00 | 0.00 | 0.00 | 41 | 940.1 |
| 20260509201039 | 90 | 204 | 6.1 | 11.3 | 0.00 | 0.00 | 0.00 | 39 | 940.2 |
| 20260509200939 | 90 | 157 | 6.1 | 10.4 | 0.00 | 0.00 | 0.00 | 42 | 940.2 |
| 20260509200834 | 90 | 204 | 6.1 | 10.4 | 0.00 | 0.00 | 0.00 | 38 | 940.1 |
| 20260509200734 | 90 | 201 | 6.1 | 10.4 | 0.00 | 0.00 | 0.00 | 38 | 940.2 |
| 20260509200634 | 90 | 211 | 6.1 | 10.4 | 0.00 | 0.00 | 0.00 | 38 | 940.2 |
| 20260509200535 | 90 | 163 | 5.2 | 10.4 | 0.00 | 0.00 | 0.00 | 39 | 940.2 |
| 20260509200433 | 90 | 173 | 5.2 | 9.6 | 0.00 | 0.00 | 0.00 | 39 | 940.2 |
| 20260509200330 | 90 | 177 | 5.2 | 9.6 | 0.00 | 0.00 | 0.00 | 37 | 940.2 |
| 20260509200226 | 90 | 174 | 5.2 | 11.3 | 0.00 | 0.00 | 0.00 | 40 | 940.2 |
| 20260509200127 | 90 | 199 | 5.2 | 11.3 | 0.00 | 0.00 | 0.00 | 41 | 940.2 |
| 20260509200031 | 90 | 160 | 5.2 | 11.3 | 0.00 | 0.00 | 0.00 | 40 | 940.2 |
| 20260509195927 | 90 | 188 | 5.2 | 11.3 | 0.00 | 0.00 | 0.00 | 40 | 940.2 |
| 20260509195821 | 90 | 161 | 5.2 | 11.3 | 0.00 | 0.00 | 0.00 | 41 | 940.2 |
| 20260509195721 | 90 | 186 | 5.2 | 11.3 | 0.00 | 0.00 | 0.00 | 41 | 940.3 |
| 20260509195621 | 90 | 167 | 5.2 | 11.3 | 0.00 | 0.00 | 0.00 | 42 | 940.3 |
| 20260509195521 | 90 | 177 | 5.2 | 11.3 | 0.00 | 0.00 | 0.00 | 42 | 940.3 |
| 20260509195421 | 89 | 196 | 4.3 | 11.3 | 0.00 | 0.00 | 0.00 | 42 | 940.3 |
| 20260509195316 | 89 | 190 | 4.3 | 11.3 | 0.00 | 0.00 | 0.00 | 40 | 940.3 |
| 20260509195214 | 89 | 156 | 4.3 | 11.3 | 0.00 | 0.00 | 0.00 | 40 | 940.3 |
| 20260509195116 | 89 | 114 | 4.3 | 11.3 | 0.00 | 0.00 | 0.00 | 40 | 940.3 |
| 20260509195014 | 89 | 134 | 4.3 | 11.3 | 0.00 | 0.00 | 0.00 | 42 | 940.4 |
| 20260509194915 | 89 | 160 | 4.3 | 11.3 | 0.00 | 0.00 | 0.00 | 41 | 940.4 |
| 20260509194808 | 89 | 178 | 3.5 | 9.6 | 0.00 | 0.00 | 0.00 | 43 | 940.4 |
| 20260509194708 | 89 | 203 | 3.5 | 9.6 | 0.00 | 0.00 | 0.00 | 40 | 940.4 |
| 20260509194609 | 89 | 190 | 4.3 | 9.6 | 0.00 | 0.00 | 0.00 | 40 | 940.4 |
| 20260509194510 | 89 | 179 | 3.5 | 9.6 | 0.00 | 0.00 | 0.00 | 40 | 940.5 |
| 20260509194409 | 89 | 226 | 4.3 | 9.6 | 0.00 | 0.00 | 0.00 | 42 | 940.5 |
| 20260509194303 | 89 | 256 | 4.3 | 9.6 | 0.00 | 0.00 | 0.00 | 43 | 940.5 |
| 20260509194204 | 89 | 205 | 3.5 | 9.6 | 0.00 | 0.00 | 0.00 | 44 | 940.5 |
| 20260509194103 | 89 | 207 | 3.5 | 9.6 | 0.00 | 0.00 | 0.00 | 46 | 940.5 |
| 20260509194002 | 89 | 243 | 3.5 | 9.6 | 0.00 | 0.00 | 0.00 | 46 | 940.5 |
| 20260509193903 | 89 | 246 | 4.3 | 9.6 | 0.00 | 0.00 | 0.00 | 43 | 940.6 |
| 20260509193757 | 89 | 215 | 4.3 | 9.6 | 0.00 | 0.00 | 0.00 | 43 | 940.6 |
| 20260509193656 | 89 | 231 | 4.3 | 9.6 | 0.00 | 0.00 | 0.00 | 42 | 940.6 |
| 20260509193556 | 89 | 227 | 4.3 | 9.6 | 0.00 | 0.00 | 0.00 | 42 | 940.6 |
| 20260509193456 | 89 | 171 | 4.3 | 9.6 | 0.00 | 0.00 | 0.00 | 40 | 940.6 |
| 20260509193357 | 89 | 150 | 4.3 | 9.6 | 0.00 | 0.00 | 0.00 | 40 | 940.7 |
| 20260509193325 | 89 | 134 | 4.3 | 9.6 | 0.00 | 0.00 | 0.00 | 45 | 940.6 |
| 20260509193153 | 89 | 215 | 4.3 | 9.6 | 0.00 | 0.00 | 0.00 | 40 | 940.7 |
| 20260509193052 | 89 | 159 | 4.3 | 9.6 | 0.00 | 0.00 | 0.00 | 42 | 940.6 |
| 20260509192953 | 89 | 169 | 4.3 | 9.6 | 0.00 | 0.00 | 0.00 | 43 | 940.7 |
| 20260509192851 | 89 | 153 | 4.3 | 9.6 | 0.00 | 0.00 | 0.00 | 41 | 940.7 |
| 20260509192748 | 89 | 177 | 4.3 | 9.6 | 0.00 | 0.00 | 0.00 | 43 | 940.7 |
| 20260509192650 | 89 | 163 | 4.3 | 8.7 | 0.00 | 0.00 | 0.00 | 42 | 940.7 |
| 20260509192548 | 89 | 112 | 5.2 | 12.2 | 0.00 | 0.00 | 0.00 | 43 | 940.7 |
| 20260509192448 | 89 | 195 | 5.2 | 12.2 | 0.00 | 0.00 | 0.00 | 42 | 940.7 |
| 20260509192345 | 89 | 197 | 5.2 | 12.2 | 0.00 | 0.00 | 0.00 | 43 | 940.7 |
| 20260509192240 | 89 | 175 | 5.2 | 12.2 | 0.00 | 0.00 | 0.00 | 42 | 940.7 |
| 20260509192151 | 88 | 142 | 6.1 | 12.2 | 0.00 | 0.00 | 0.00 | 42 | 940.7 |
| 20260509192135 | 88 | 161 | 6.1 | 12.2 | 0.00 | 0.00 | 0.00 | 43 | 940.8 |
| 20260509191943 | 88 | 195 | 6.1 | 12.2 | 0.00 | 0.00 | 0.00 | 42 | 940.8 |
| 20260509191926 | 88 | 185 | 6.1 | 12.2 | 0.00 | 0.00 | 0.00 | 41 | 940.8 |
| 20260509191909 | 88 | 170 | 6.1 | 12.2 | 0.00 | 0.00 | 0.00 | 42 | 940.8 |
| 20260509191632 | 88 | 178 | 5.2 | 12.2 | 0.00 | 0.00 | 0.00 | 43 | 940.8 |
| 20260509191545 | 88 | 186 | 5.2 | 11.3 | 0.00 | 0.00 | 0.00 | 45 | 940.8 |
| 20260509191528 | 88 | 189 | 5.2 | 11.3 | 0.00 | 0.00 | 0.00 | 45 | 940.8 |
| 20260509191333 | 88 | 223 | 5.2 | 11.3 | 0.00 | 0.00 | 0.00 | 44 | 940.8 |
| 20260509191301 | 88 | 169 | 5.2 | 11.3 | 0.00 | 0.00 | 0.00 | 44 | 940.8 |
| 20260509191126 | 88 | 178 | 5.2 | 11.3 | 0.00 | 0.00 | 0.00 | 44 | 940.8 |
| 20260509191028 | 88 | 181 | 5.2 | 10.4 | 0.00 | 0.00 | 0.00 | 44 | 940.8 |
| 20260509190927 | 88 | 180 | 5.2 | 12.2 | 0.00 | 0.00 | 0.00 | 42 | 940.8 |
| 20260509190827 | 88 | 227 | 5.2 | 12.2 | 0.00 | 0.00 | 0.00 | 44 | 940.9 |
| 20260509190722 | 88 | 190 | 5.2 | 12.2 | 0.00 | 0.00 | 0.00 | 44 | 940.8 |
| 20260509190623 | 88 | 192 | 5.2 | 12.2 | 0.00 | 0.00 | 0.00 | 41 | 940.9 |
| 20260509190522 | 88 | 177 | 5.2 | 12.2 | 0.00 | 0.00 | 0.00 | 41 | 940.9 |
| 20260509190424 | 88 | 190 | 5.2 | 12.2 | 0.00 | 0.00 | 0.00 | 43 | 940.9 |
| 20260509190321 | 88 | 171 | 5.2 | 12.2 | 0.00 | 0.00 | 0.00 | 41 | 940.9 |
| 20260509190218 | 88 | 199 | 5.2 | 12.2 | 0.00 | 0.00 | 0.00 | 43 | 940.9 |
| 20260509190114 | 88 | 182 | 4.3 | 12.2 | 0.00 | 0.00 | 0.00 | 44 | 941.0 |
| 20260509190014 | 88 | 167 | 4.3 | 12.2 | 0.00 | 0.00 | 0.00 | 43 | 940.9 |
| 20260509185915 | 88 | 191 | 4.3 | 7.8 | 0.00 | 0.00 | 0.00 | 43 | 940.9 |
| 20260509185815 | 88 | 257 | 4.3 | 8.7 | 0.00 | 0.00 | 0.00 | 43 | 940.9 |
| 20260509185744 | 88 | 198 | 4.3 | 10.4 | 0.00 | 0.00 | 0.00 | 43 | 941.0 |
| 20260509185609 | 88 | 184 | 4.3 | 10.4 | 0.00 | 0.00 | 0.00 | 46 | 940.9 |
| 20260509185510 | 88 | 194 | 4.3 | 10.4 | 0.00 | 0.00 | 0.00 | 43 | 941.0 |
| 20260509185409 | 88 | 191 | 4.3 | 10.4 | 0.00 | 0.00 | 0.00 | 45 | 941.0 |
| 20260509185309 | 88 | 217 | 4.3 | 10.4 | 0.00 | 0.00 | 0.00 | 44 | 941.0 |
| 20260509185203 | 88 | 196 | 4.3 | 10.4 | 0.00 | 0.00 | 0.00 | 44 | 941.0 |
| 20260509185104 | 88 | 154 | 4.3 | 10.4 | 0.00 | 0.00 | 0.00 | 44 | 941.0 |
| 20260509185004 | 88 | 142 | 5.2 | 10.4 | 0.00 | 0.00 | 0.00 | 44 | 941.1 |
| 20260509184903 | 88 | 155 | 5.2 | 10.4 | 0.00 | 0.00 | 0.00 | 44 | 941.0 |
| 20260509184804 | 88 | 181 | 5.2 | 10.4 | 0.00 | 0.00 | 0.00 | 47 | 941.1 |
| 20260509184657 | 87 | 178 | 5.2 | 10.4 | 0.00 | 0.00 | 0.00 | 45 | 941.0 |
| 20260509184558 | 87 | 153 | 5.2 | 10.4 | 0.00 | 0.00 | 0.00 | 45 | 941.1 |
| 20260509184457 | 87 | 154 | 5.2 | 12.2 | 0.00 | 0.00 | 0.00 | 48 | 941.0 |
| 20260509184358 | 87 | 206 | 5.2 | 12.2 | 0.00 | 0.00 | 0.00 | 48 | 941.1 |
| 20260509184257 | 87 | 211 | 5.2 | 12.2 | 0.00 | 0.00 | 0.00 | 45 | 941.1 |
| 20260509184226 | 87 | 195 | 5.2 | 12.2 | 0.00 | 0.00 | 0.00 | 47 | 941.0 |
| 20260509184051 | 87 | 178 | 4.3 | 12.2 | 0.00 | 0.00 | 0.00 | 46 | 941.0 |
| 20260509183951 | 87 | 231 | 4.3 | 12.2 | 0.00 | 0.00 | 0.00 | 46 | 941.0 |
| 20260509183851 | 87 | 234 | 4.3 | 12.2 | 0.00 | 0.00 | 0.00 | 47 | 941.1 |
| 20260509183751 | 87 | 173 | 4.3 | 12.2 | 0.00 | 0.00 | 0.00 | 47 | 941.1 |
| 20260509183644 | 87 | 240 | 4.3 | 12.2 | 0.00 | 0.00 | 0.00 | 45 | 941.1 |
| 20260509183545 | 87 | 227 | 4.3 | 12.2 | 0.00 | 0.00 | 0.00 | 49 | 941.2 |
| 20260509183445 | 87 | 186 | 4.3 | 10.4 | 0.00 | 0.00 | 0.00 | 47 | 941.2 |
| 20260509183345 | 87 | 211 | 4.3 | 10.4 | 0.00 | 0.00 | 0.00 | 47 | 941.2 |
| 20260509183245 | 87 | 156 | 4.3 | 10.4 | 0.00 | 0.00 | 0.00 | 52 | 941.2 |
| 20260509183140 | 87 | 180 | 4.3 | 11.3 | 0.00 | 0.00 | 0.00 | 48 | 941.2 |
| 20260509183040 | 87 | 211 | 4.3 | 11.3 | 0.00 | 0.00 | 0.00 | 46 | 941.2 |
| 20260509182940 | 87 | 192 | 5.2 | 11.3 | 0.00 | 0.00 | 0.00 | 47 | 941.2 |
| 20260509182841 | 87 | 190 | 4.3 | 11.3 | 0.00 | 0.00 | 0.00 | 48 | 941.3 |
| 20260509182739 | 87 | 202 | 4.3 | 11.3 | 0.00 | 0.00 | 0.00 | 52 | 941.3 |
| 20260509182636 | 86 | 163 | 4.3 | 11.3 | 0.00 | 0.00 | 0.00 | 52 | 941.3 |
| 20260509182533 | 86 | 202 | 4.3 | 11.3 | 0.00 | 0.00 | 0.00 | 50 | 941.3 |
| 20260509182433 | 86 | 190 | 4.3 | 11.3 | 0.00 | 0.00 | 0.00 | 47 | 941.4 |
| 20260509182333 | 86 | 174 | 5.2 | 11.3 | 0.00 | 0.00 | 0.00 | 49 | 941.3 |
| 20260509182233 | 86 | 207 | 5.2 | 11.3 | 0.00 | 0.00 | 0.00 | 49 | 941.4 |
| 20260509182127 | 86 | 197 | 5.2 | 11.3 | 0.00 | 0.00 | 0.00 | 49 | 941.4 |
| 20260509182027 | 86 | 200 | 5.2 | 11.3 | 0.00 | 0.00 | 0.00 | 47 | 941.4 |
| 20260509181927 | 86 | 165 | 5.2 | 11.3 | 0.00 | 0.00 | 0.00 | 49 | 941.4 |
| 20260509181826 | 86 | 148 | 5.2 | 11.3 | 0.00 | 0.00 | 0.00 | 50 | 941.5 |
| 20260509181727 | 86 | 167 | 6.1 | 11.3 | 0.00 | 0.00 | 0.00 | 49 | 941.5 |
| 20260509181621 | 86 | 167 | 6.1 | 11.3 | 0.00 | 0.00 | 0.00 | 47 | 941.5 |
| 20260509181520 | 86 | 160 | 5.2 | 11.3 | 0.00 | 0.00 | 0.00 | 47 | 941.5 |
| 20260509181421 | 86 | 190 | 5.2 | 11.3 | 0.00 | 0.00 | 0.00 | 48 | 941.5 |
| 20260509181320 | 86 | 141 | 5.2 | 11.3 | 0.00 | 0.00 | 0.00 | 48 | 941.5 |
| 20260509181221 | 86 | 165 | 4.3 | 11.3 | 0.00 | 0.00 | 0.00 | 52 | 941.5 |
| 20260509181115 | 86 | 187 | 4.3 | 10.4 | 0.00 | 0.00 | 0.00 | 50 | 941.5 |
| 20260509181015 | 86 | 190 | 4.3 | 10.4 | 0.00 | 0.00 | 0.00 | 50 | 941.6 |
| 20260509180915 | 86 | 178 | 4.3 | 10.4 | 0.00 | 0.00 | 0.00 | 54 | 941.6 |
| 20260509180815 | 86 | 232 | 4.3 | 10.4 | 0.00 | 0.00 | 0.00 | 53 | 941.6 |
| 20260509180715 | 85 | 242 | 4.3 | 7.8 | 0.00 | 0.00 | 0.00 | 53 | 941.6 |
| 20260509180609 | 85 | 219 | 4.3 | 8.7 | 0.00 | 0.00 | 0.00 | 51 | 941.7 |
| 20260509180508 | 85 | 175 | 4.3 | 8.7 | 0.00 | 0.00 | 0.00 | 50 | 941.6 |
| 20260509180409 | 85 | 250 | 4.3 | 8.7 | 0.00 | 0.00 | 0.00 | 52 | 941.7 |
| 20260509180309 | 85 | 205 | 5.2 | 8.7 | 0.00 | 0.00 | 0.00 | 52 | 941.7 |
| 20260509180209 | 85 | 248 | 5.2 | 8.7 | 0.00 | 0.00 | 0.00 | 51 | 941.7 |
| 20260509180004 | 85 | 161 | 5.2 | 9.6 | 0.00 | 0.00 | 0.00 | 52 | 941.7 |
| 20260509175902 | 85 | 209 | 5.2 | 9.6 | 0.00 | 0.00 | 0.00 | 52 | 941.7 |
| 20260509175802 | 85 | 157 | 6.1 | 9.6 | 0.00 | 0.00 | 0.00 | 51 | 941.7 |
| 20260509175704 | 85 | 167 | 6.1 | 9.6 | 0.00 | 0.00 | 0.00 | 52 | 941.7 |
| 20260509175558 | 85 | 192 | 6.1 | 9.6 | 0.00 | 0.00 | 0.00 | 53 | 941.7 |
| 20260509175500 | 85 | 191 | 5.2 | 9.6 | 0.00 | 0.00 | 0.00 | 54 | 941.7 |
| 20260509175358 | 85 | 181 | 5.2 | 9.6 | 0.00 | 0.00 | 0.00 | 53 | 941.7 |
| 20260509175300 | 85 | 178 | 5.2 | 9.6 | 0.00 | 0.00 | 0.00 | 53 | 941.7 |
| 20260509175157 | 85 | 191 | 4.3 | 9.6 | 0.00 | 0.00 | 0.00 | 54 | 941.7 |
| 20260509175137 | 85 | 163 | 4.3 | 9.6 | 0.00 | 0.00 | 0.00 | 54 | 941.7 |
| 20260509174950 | 85 | 117 | 4.3 | 8.7 | 0.00 | 0.00 | 0.00 | 52 | 941.8 |
| 20260509174851 | 85 | 163 | 4.3 | 8.7 | 0.00 | 0.00 | 0.00 | 52 | 941.8 |
| 20260509174751 | 85 | 153 | 4.3 | 8.7 | 0.00 | 0.00 | 0.00 | 52 | 941.8 |
| 20260509174651 | 85 | 127 | 4.3 | 8.7 | 0.00 | 0.00 | 0.00 | 52 | 941.8 |
| 20260509174545 | 85 | 140 | 4.3 | 8.7 | 0.00 | 0.00 | 0.00 | 55 | 941.8 |
| 20260509174444 | 85 | 173 | 4.3 | 8.7 | 0.00 | 0.00 | 0.00 | 53 | 941.9 |
| 20260509174345 | 85 | 182 | 5.2 | 8.7 | 0.00 | 0.00 | 0.00 | 52 | 941.8 |
| 20260509174244 | 85 | 144 | 5.2 | 8.7 | 0.00 | 0.00 | 0.00 | 54 | 941.9 |
| 20260509174145 | 85 | 191 | 5.2 | 8.7 | 0.00 | 0.00 | 0.00 | 54 | 941.9 |
| 20260509174039 | 85 | 198 | 5.2 | 8.7 | 0.00 | 0.00 | 0.00 | 54 | 941.9 |
| 20260509173939 | 85 | 182 | 5.2 | 8.7 | 0.00 | 0.00 | 0.00 | 52 | 942.0 |
| 20260509173839 | 85 | 188 | 4.3 | 8.7 | 0.00 | 0.00 | 0.00 | 53 | 941.9 |
| 20260509173738 | 85 | 159 | 5.2 | 8.7 | 0.00 | 0.00 | 0.00 | 53 | 941.9 |
| 20260509173638 | 85 | 168 | 5.2 | 8.7 | 0.00 | 0.00 | 0.00 | 52 | 941.9 |
| 20260509173533 | 85 | 190 | 5.2 | 10.4 | 0.00 | 0.00 | 0.00 | 55 | 941.9 |
| 20260509173431 | 85 | 184 | 4.3 | 10.4 | 0.00 | 0.00 | 0.00 | 55 | 942.0 |
| 20260509173333 | 84 | 207 | 4.3 | 10.4 | 0.00 | 0.00 | 0.00 | 55 | 942.0 |
| 20260509173232 | 84 | 186 | 4.3 | 10.4 | 0.00 | 0.00 | 0.00 | 57 | 942.0 |
| 20260509173133 | 84 | 147 | 4.3 | 10.4 | 0.00 | 0.00 | 0.00 | 56 | 942.0 |
| 20260509172928 | 84 | 176 | 4.3 | 10.4 | 0.00 | 0.00 | 0.00 | 54 | 942.0 |
| 20260509172828 | 84 | 198 | 4.3 | 10.4 | 0.00 | 0.00 | 0.00 | 57 | 942.1 |
| 20260509172729 | 84 | 199 | 4.3 | 10.4 | 0.00 | 0.00 | 0.00 | 54 | 942.1 |
| 20260509172627 | 84 | 175 | 3.5 | 10.4 | 0.00 | 0.00 | 0.00 | 55 | 942.1 |
| 20260509172523 | 84 | 192 | 3.5 | 7.8 | 0.00 | 0.00 | 0.00 | 58 | 942.1 |
| 20260509172423 | 84 | 262 | 4.3 | 7.8 | 0.00 | 0.00 | 0.00 | 58 | 942.1 |
| 20260509172406 | 84 | 149 | 4.3 | 10.4 | 0.00 | 0.00 | 0.00 | 55 | 942.1 |
| 20260509172221 | 84 | 184 | 4.3 | 10.4 | 0.00 | 0.00 | 0.00 | 58 | 942.2 |
| 20260509172142 | 84 | 182 | 4.3 | 10.4 | 0.00 | 0.00 | 0.00 | 58 | 942.2 |
| 20260509172019 | 84 | 207 | 4.3 | 10.4 | 0.00 | 0.00 | 0.00 | 57 | 942.2 |
| 20260509171918 | 83 | 171 | 4.3 | 10.4 | 0.00 | 0.00 | 0.00 | 57 | 942.2 |
| 20260509171818 | 83 | 187 | 4.3 | 10.4 | 0.00 | 0.00 | 0.00 | 57 | 942.2 |
| 20260509171718 | 83 | 230 | 4.3 | 10.4 | 0.00 | 0.00 | 0.00 | 57 | 942.2 |
| 20260509171618 | 83 | 230 | 4.3 | 10.4 | 0.00 | 0.00 | 0.00 | 59 | 942.2 |
| 20260509171519 | 83 | 222 | 5.2 | 10.4 | 0.00 | 0.00 | 0.00 | 57 | 942.2 |
| 20260509171417 | 83 | 211 | 4.3 | 10.4 | 0.00 | 0.00 | 0.00 | 59 | 942.2 |
| 20260509171316 | 83 | 183 | 5.2 | 10.4 | 0.00 | 0.00 | 0.00 | 58 | 942.2 |
| 20260509171216 | 83 | 167 | 5.2 | 10.4 | 0.00 | 0.00 | 0.00 | 58 | 942.2 |
| 20260509171116 | 83 | 161 | 5.2 | 10.4 | 0.00 | 0.00 | 0.00 | 59 | 942.2 |
| 20260509171017 | 83 | 134 | 5.2 | 10.4 | 0.00 | 0.00 | 0.00 | 59 | 942.3 |
| 20260509170914 | 83 | 186 | 5.2 | 10.4 | 0.00 | 0.00 | 0.00 | 56 | 942.2 |
| 20260509170813 | 83 | 148 | 5.2 | 10.4 | 0.00 | 0.00 | 0.00 | 56 | 942.3 |
| 20260509170715 | 83 | 146 | 4.3 | 10.4 | 0.00 | 0.00 | 0.00 | 56 | 942.3 |
| 20260509170614 | 83 | 146 | 4.3 | 10.4 | 0.00 | 0.00 | 0.00 | 57 | 942.2 |
| 20260509170515 | 83 | 158 | 4.3 | 10.4 | 0.00 | 0.00 | 0.00 | 57 | 942.3 |
| 20260509170415 | 83 | 139 | 4.3 | 8.7 | 0.00 | 0.00 | 0.00 | 59 | 942.3 |
| 20260509170313 | 83 | 188 | 4.3 | 8.7 | 0.00 | 0.00 | 0.00 | 60 | 942.3 |
| 20260509170214 | 83 | 189 | 3.5 | 8.7 | 0.00 | 0.00 | 0.00 | 58 | 942.3 |
| 20260509170114 | 83 | 178 | 3.5 | 8.7 | 0.00 | 0.00 | 0.00 | 59 | 942.3 |
| 20260509170014 | 83 | 154 | 4.3 | 8.7 | 0.00 | 0.00 | 0.00 | 60 | 942.3 |
| 20260509165915 | 82 | 169 | 4.3 | 8.7 | 0.00 | 0.00 | 0.00 | 61 | 942.3 |
| 20260509165815 | 82 | 207 | 4.3 | 8.7 | 0.00 | 0.00 | 0.00 | 63 | 942.3 |
| 20260509165712 | 82 | 267 | 5.2 | 8.7 | 0.00 | 0.00 | 0.00 | 61 | 942.3 |
| 20260509165612 | 82 | 242 | 5.2 | 8.7 | 0.00 | 0.00 | 0.00 | 60 | 942.3 |
| 20260509165513 | 82 | 196 | 5.2 | 9.6 | 0.00 | 0.00 | 0.00 | 61 | 942.3 |
| 20260509165411 | 82 | 222 | 6.1 | 9.6 | 0.00 | 0.00 | 0.00 | 60 | 942.3 |
| 20260509165313 | 82 | 220 | 6.1 | 10.4 | 0.00 | 0.00 | 0.00 | 59 | 942.3 |
| 20260509165212 | 82 | 204 | 6.1 | 10.4 | 0.00 | 0.00 | 0.00 | 60 | 942.3 |
| 20260509165113 | 82 | 202 | 6.1 | 10.4 | 0.00 | 0.00 | 0.00 | 61 | 942.3 |
| 20260509165013 | 82 | 202 | 6.1 | 10.4 | 0.00 | 0.00 | 0.00 | 59 | 942.4 |
| 20260509164912 | 82 | 199 | 5.2 | 10.4 | 0.00 | 0.00 | 0.00 | 61 | 942.4 |
| 20260509164813 | 82 | 184 | 5.2 | 10.4 | 0.00 | 0.00 | 0.00 | 60 | 942.4 |
| 20260509164712 | 82 | 200 | 5.2 | 10.4 | 0.00 | 0.00 | 0.00 | 62 | 942.4 |
| 20260509164612 | 82 | 194 | 5.2 | 10.4 | 0.00 | 0.00 | 0.00 | 62 | 942.4 |
| 20260509164513 | 82 | 184 | 5.2 | 10.4 | 0.00 | 0.00 | 0.00 | 60 | 942.5 |
| 20260509164408 | 82 | 186 | 5.2 | 10.4 | 0.00 | 0.00 | 0.00 | 62 | 942.4 |
| 20260509164308 | 82 | 202 | 5.2 | 10.4 | 0.00 | 0.00 | 0.00 | 60 | 942.4 |
| 20260509164209 | 81 | 165 | 5.2 | 10.4 | 0.00 | 0.00 | 0.00 | 62 | 942.5 |
| 20260509164109 | 81 | 167 | 5.2 | 11.3 | 0.00 | 0.00 | 0.00 | 63 | 942.5 |
| 20260509164008 | 81 | 178 | 5.2 | 11.3 | 0.00 | 0.00 | 0.00 | 62 | 942.5 |
| 20260509163908 | 81 | 183 | 5.2 | 11.3 | 0.00 | 0.00 | 0.00 | 60 | 942.5 |
| 20260509163807 | 81 | 192 | 5.2 | 11.3 | 0.00 | 0.00 | 0.00 | 62 | 942.5 |
| 20260509163709 | 81 | 203 | 5.2 | 11.3 | 0.00 | 0.00 | 0.00 | 62 | 942.5 |
| 20260509163608 | 81 | 179 | 6.1 | 11.3 | 0.00 | 0.00 | 0.00 | 62 | 942.5 |
| 20260509163508 | 81 | 197 | 5.2 | 11.3 | 0.00 | 0.00 | 0.00 | 63 | 942.5 |
| 20260509163409 | 81 | 192 | 5.2 | 11.3 | 0.00 | 0.00 | 0.00 | 62 | 942.5 |
| 20260509163308 | 81 | 189 | 5.2 | 11.3 | 0.00 | 0.00 | 0.00 | 64 | 942.5 |
| 20260509163209 | 81 | 203 | 5.2 | 11.3 | 0.00 | 0.00 | 0.00 | 64 | 942.5 |
| 20260509163108 | 81 | 190 | 4.3 | 10.4 | 0.00 | 0.00 | 0.00 | 62 | 942.4 |
| 20260509163009 | 81 | 188 | 4.3 | 9.6 | 0.00 | 0.00 | 0.00 | 64 | 942.5 |
| 20260509162907 | 81 | 184 | 4.3 | 9.6 | 0.00 | 0.00 | 0.00 | 63 | 942.4 |
| 20260509162808 | 81 | 208 | 4.3 | 9.6 | 0.00 | 0.00 | 0.00 | 62 | 942.5 |
| 20260509162707 | 81 | 180 | 4.3 | 9.6 | 0.00 | 0.00 | 0.00 | 65 | 942.5 |
| 20260509162609 | 81 | 185 | 4.3 | 7.8 | 0.00 | 0.00 | 0.00 | 63 | 942.5 |
| 20260509162504 | 81 | 227 | 4.3 | 7.8 | 0.00 | 0.00 | 0.00 | 63 | 942.5 |
| 20260509162404 | 81 | 223 | 4.3 | 8.7 | 0.00 | 0.00 | 0.00 | 66 | 942.5 |
| 20260509162307 | 81 | 235 | 4.3 | 9.6 | 0.00 | 0.00 | 0.00 | 65 | 942.5 |
| 20260509162204 | 80 | 249 | 4.3 | 9.6 | 0.00 | 0.00 | 0.00 | 64 | 942.5 |
| 20260509162104 | 80 | 229 | 4.3 | 9.6 | 0.00 | 0.00 | 0.00 | 65 | 942.5 |
| 20260509162004 | 80 | 196 | 4.3 | 9.6 | 0.00 | 0.00 | 0.00 | 65 | 942.4 |
| 20260509161904 | 80 | 210 | 5.2 | 9.6 | 0.00 | 0.00 | 0.00 | 64 | 942.5 |
| 20260509161804 | 80 | 222 | 5.2 | 11.3 | 0.00 | 0.00 | 0.00 | 64 | 942.5 |
| 20260509161705 | 80 | 187 | 5.2 | 11.3 | 0.00 | 0.00 | 0.00 | 64 | 942.5 |
| 20260509161605 | 80 | 169 | 5.2 | 11.3 | 0.00 | 0.00 | 0.00 | 64 | 942.5 |
| 20260509161504 | 80 | 221 | 5.2 | 11.3 | 0.00 | 0.00 | 0.00 | 64 | 942.4 |
| 20260509161404 | 80 | 159 | 5.2 | 11.3 | 0.00 | 0.00 | 0.00 | 63 | 942.4 |
| 20260509161305 | 80 | 237 | 5.2 | 11.3 | 0.00 | 0.00 | 0.00 | 64 | 942.4 |
| 20260509161205 | 80 | 209 | 5.2 | 11.3 | 0.00 | 0.00 | 0.00 | 66 | 942.4 |
| 20260509161104 | 80 | 192 | 5.2 | 11.3 | 0.00 | 0.00 | 0.00 | 65 | 942.4 |
| 20260509161004 | 80 | 220 | 5.2 | 11.3 | 0.00 | 0.00 | 0.00 | 64 | 942.3 |
| 20260509160905 | 80 | 159 | 5.2 | 11.3 | 0.00 | 0.00 | 0.00 | 65 | 942.4 |
| 20260509160804 | 80 | 224 | 5.2 | 11.3 | 0.00 | 0.00 | 0.00 | 67 | 942.3 |
| 20260509160705 | 80 | 207 | 5.2 | 11.3 | 0.00 | 0.00 | 0.00 | 66 | 942.3 |
| 20260509160601 | 80 | 207 | 5.2 | 11.3 | 0.00 | 0.00 | 0.00 | 66 | 942.3 |
| 20260509160501 | 80 | 238 | 5.2 | 11.3 | 0.00 | 0.00 | 0.00 | 68 | 942.3 |
| 20260509160401 | 80 | 242 | 5.2 | 11.3 | 0.00 | 0.00 | 0.00 | 66 | 942.3 |
| 20260509160259 | 80 | 190 | 5.2 | 11.3 | 0.00 | 0.00 | 0.00 | 69 | 942.3 |
| 20260509160200 | 80 | 229 | 5.2 | 11.3 | 0.00 | 0.00 | 0.00 | 68 | 942.3 |
| 20260509160059 | 79 | 239 | 5.2 | 11.3 | 0.00 | 0.00 | 0.00 | 67 | 942.3 |
| 20260509160002 | 79 | 251 | 5.2 | 11.3 | 0.00 | 0.00 | 0.00 | 68 | 942.3 |
| 20260509155901 | 79 | 242 | 5.2 | 11.3 | 0.00 | 0.00 | 0.00 | 69 | 942.3 |
| 20260509155801 | 79 | 220 | 5.2 | 11.3 | 0.00 | 0.00 | 0.00 | 68 | 942.3 |
| 20260509155700 | 79 | 269 | 4.3 | 9.6 | 0.00 | 0.00 | 0.00 | 69 | 942.4 |
| 20260509155559 | 79 | 190 | 5.2 | 9.6 | 0.00 | 0.00 | 0.00 | 67 | 942.4 |
| 20260509155500 | 79 | 207 | 5.2 | 11.3 | 0.00 | 0.00 | 0.00 | 67 | 942.4 |
| 20260509155401 | 79 | 198 | 5.2 | 11.3 | 0.00 | 0.00 | 0.00 | 67 | 942.4 |
| 20260509155301 | 79 | 209 | 5.2 | 11.3 | 0.00 | 0.00 | 0.00 | 66 | 942.4 |
| 20260509155201 | 79 | 225 | 5.2 | 11.3 | 0.00 | 0.00 | 0.00 | 68 | 942.4 |
| 20260509155101 | 79 | 242 | 5.2 | 11.3 | 0.00 | 0.00 | 0.00 | 70 | 942.5 |
| 20260509154959 | 79 | 200 | 5.2 | 11.3 | 0.00 | 0.00 | 0.00 | 68 | 942.4 |
| 20260509154900 | 79 | 249 | 5.2 | 11.3 | 0.00 | 0.00 | 0.00 | 71 | 942.4 |
| 20260509154759 | 79 | 255 | 5.2 | 11.3 | 0.00 | 0.00 | 0.00 | 70 | 942.5 |
| 20260509154700 | 79 | 250 | 5.2 | 11.3 | 0.00 | 0.00 | 0.00 | 70 | 942.5 |
| 20260509154559 | 79 | 203 | 6.1 | 11.3 | 0.00 | 0.00 | 0.00 | 70 | 942.5 |
| 20260509154501 | 78 | 200 | 6.1 | 12.2 | 0.00 | 0.00 | 0.00 | 70 | 942.4 |
| 20260509154400 | 78 | 265 | 6.1 | 12.2 | 0.00 | 0.00 | 0.00 | 71 | 942.5 |
| 20260509154300 | 78 | 274 | 6.1 | 12.2 | 0.00 | 0.00 | 0.00 | 69 | 942.5 |
| 20260509154200 | 78 | 269 | 6.1 | 13.0 | 0.00 | 0.00 | 0.00 | 70 | 942.5 |
| 20260509154101 | 78 | 220 | 5.2 | 13.0 | 0.00 | 0.00 | 0.00 | 71 | 942.5 |
| 20260509153956 | 78 | 240 | 5.2 | 13.0 | 0.00 | 0.00 | 0.00 | 70 | 942.5 |
| 20260509153856 | 78 | 245 | 5.2 | 13.0 | 0.00 | 0.00 | 0.00 | 71 | 942.4 |
| 20260509153757 | 78 | 236 | 5.2 | 13.0 | 0.00 | 0.00 | 0.00 | 73 | 942.4 |
| 20260509153656 | 78 | 210 | 5.2 | 13.0 | 0.00 | 0.00 | 0.00 | 73 | 942.5 |
| 20260509153555 | 78 | 259 | 5.2 | 13.0 | 0.00 | 0.00 | 0.00 | 72 | 942.4 |
| 20260509153457 | 78 | 238 | 5.2 | 13.0 | 0.00 | 0.00 | 0.00 | 72 | 942.4 |
| 20260509153357 | 78 | 254 | 4.3 | 13.0 | 0.00 | 0.00 | 0.00 | 71 | 942.4 |
| 20260509153257 | 78 | 217 | 4.3 | 13.0 | 0.00 | 0.00 | 0.00 | 72 | 942.4 |
| 20260509153155 | 78 | 186 | 4.3 | 10.4 | 0.00 | 0.00 | 0.00 | 71 | 942.4 |
| 20260509153056 | 78 | 202 | 5.2 | 10.4 | 0.00 | 0.00 | 0.00 | 74 | 942.4 |
| 20260509152955 | 78 | 257 | 4.3 | 10.4 | 0.00 | 0.00 | 0.00 | 73 | 942.4 |
| 20260509152856 | 78 | 232 | 5.2 | 10.4 | 0.00 | 0.00 | 0.00 | 71 | 942.4 |
| 20260509152757 | 78 | 229 | 5.2 | 11.3 | 0.00 | 0.00 | 0.00 | 73 | 942.4 |
| 20260509152657 | 78 | 173 | 5.2 | 11.3 | 0.00 | 0.00 | 0.00 | 73 | 942.4 |
| 20260509152557 | 77 | 221 | 5.2 | 11.3 | 0.00 | 0.00 | 0.00 | 74 | 942.4 |
| 20260509152457 | 77 | 198 | 5.2 | 11.3 | 0.00 | 0.00 | 0.00 | 74 | 942.4 |
| 20260509152356 | 77 | 241 | 5.2 | 11.3 | 0.00 | 0.00 | 0.00 | 74 | 942.4 |
| 20260509152256 | 77 | 221 | 5.2 | 12.2 | 0.00 | 0.00 | 0.00 | 72 | 942.4 |
| 20260509152157 | 77 | 204 | 5.2 | 12.2 | 0.00 | 0.00 | 0.00 | 74 | 942.3 |
| 20260509152052 | 77 | 240 | 5.2 | 12.2 | 0.00 | 0.00 | 0.00 | 74 | 942.4 |
| 20260509151952 | 77 | 227 | 6.1 | 12.2 | 0.00 | 0.00 | 0.00 | 74 | 942.4 |
| 20260509151852 | 76 | 243 | 6.1 | 12.2 | 0.00 | 0.00 | 0.00 | 74 | 942.4 |
| 20260509151749 | 76 | 222 | 6.1 | 12.2 | 0.00 | 0.00 | 0.00 | 74 | 942.4 |
| 20260509151650 | 76 | 229 | 6.1 | 12.2 | 0.00 | 0.00 | 0.00 | 75 | 942.4 |
| 20260509151545 | 76 | 234 | 6.1 | 12.2 | 0.00 | 0.00 | 0.00 | 74 | 942.4 |
| 20260509151446 | 76 | 263 | 6.1 | 12.2 | 0.00 | 0.00 | 0.00 | 75 | 942.4 |
| 20260509151345 | 76 | 224 | 6.1 | 12.2 | 0.00 | 0.00 | 0.00 | 74 | 942.4 |
| 20260509151245 | 76 | 222 | 7.0 | 13.9 | 0.00 | 0.00 | 0.00 | 74 | 942.4 |
| 20260509151144 | 76 | 208 | 7.0 | 13.9 | 0.00 | 0.00 | 0.00 | 73 | 942.4 |
| 20260509151114 | 76 | 198 | 7.0 | 13.9 | 0.00 | 0.00 | 0.00 | 74 | 942.4 |
| 20260509150938 | 76 | 183 | 7.0 | 13.9 | 0.00 | 0.00 | 0.00 | 75 | 942.4 |
| 20260509150839 | 76 | 190 | 7.0 | 13.9 | 0.00 | 0.00 | 0.00 | 77 | 942.4 |
| 20260509150738 | 76 | 242 | 7.0 | 13.9 | 0.00 | 0.00 | 0.00 | 76 | 942.4 |
| 20260509150638 | 76 | 276 | 7.0 | 13.9 | 0.00 | 0.00 | 0.00 | 77 | 942.4 |
| 20260509150534 | 76 | 259 | 7.0 | 13.9 | 0.00 | 0.00 | 0.00 | 76 | 942.4 |
| 20260509150434 | 76 | 211 | 7.0 | 13.9 | 0.00 | 0.00 | 0.00 | 76 | 942.4 |
| 20260509150333 | 75 | 248 | 6.1 | 13.9 | 0.00 | 0.00 | 0.00 | 79 | 942.4 |
| 20260509150235 | 75 | 257 | 6.1 | 12.2 | 0.00 | 0.00 | 0.00 | 78 | 942.4 |
| 20260509150132 | 75 | 236 | 5.2 | 12.2 | 0.00 | 0.00 | 0.00 | 78 | 942.4 |
| 20260509150029 | 75 | 234 | 5.2 | 10.4 | 0.00 | 0.00 | 0.00 | 78 | 942.4 |
| 20260509145928 | 75 | 258 | 5.2 | 10.4 | 0.00 | 0.00 | 0.00 | 78 | 942.4 |
| 20260509145828 | 75 | 236 | 5.2 | 10.4 | 0.00 | 0.00 | 0.00 | 78 | 942.4 |
| 20260509145726 | 75 | 259 | 5.2 | 10.4 | 0.00 | 0.00 | 0.00 | 79 | 942.4 |
| 20260509145626 | 74 | 261 | 5.2 | 10.4 | 0.00 | 0.00 | 0.00 | 78 | 942.4 |
| 20260509145555 | 74 | 250 | 4.3 | 10.4 | 0.00 | 0.00 | 0.00 | 79 | 942.4 |
| 20260509145421 | 74 | 215 | 4.3 | 10.4 | 0.00 | 0.00 | 0.00 | 80 | 942.5 |
| 20260509145321 | 74 | 252 | 4.3 | 10.4 | 0.00 | 0.00 | 0.00 | 80 | 942.4 |
| 20260509145221 | 74 | 233 | 3.5 | 10.4 | 0.00 | 0.00 | 0.00 | 80 | 942.5 |
| 20260509145120 | 74 | 234 | 3.5 | 8.7 | 0.00 | 0.00 | 0.00 | 79 | 942.5 |
| 20260509145015 | 74 | 205 | 3.5 | 7.8 | 0.00 | 0.00 | 0.00 | 79 | 942.5 |
| 20260509144915 | 74 | 250 | 4.3 | 8.7 | 0.00 | 0.00 | 0.00 | 79 | 942.5 |
| 20260509144814 | 74 | 220 | 4.3 | 9.6 | 0.00 | 0.00 | 0.00 | 81 | 942.5 |
| 20260509144715 | 74 | 240 | 4.3 | 9.6 | 0.00 | 0.00 | 0.00 | 82 | 942.5 |
| 20260509144614 | 73 | 230 | 4.3 | 9.6 | 0.00 | 0.00 | 0.00 | 82 | 942.5 |
| 20260509144543 | 73 | 253 | 4.3 | 9.6 | 0.00 | 0.00 | 0.00 | 82 | 942.5 |
| 20260509144408 | 73 | 195 | 4.3 | 9.6 | 0.00 | 0.00 | 0.00 | 82 | 942.5 |
| 20260509144309 | 73 | 315 | 4.3 | 9.6 | 0.00 | 0.00 | 0.00 | 82 | 942.6 |
| 20260509144208 | 73 | 221 | 4.3 | 9.6 | 0.00 | 0.00 | 0.00 | 82 | 942.6 |
| 20260509144108 | 73 | 234 | 5.2 | 9.6 | 0.00 | 0.00 | 0.00 | 82 | 942.6 |
| 20260509144004 | 73 | 243 | 4.3 | 9.6 | 0.00 | 0.00 | 0.00 | 85 | 942.6 |
| 20260509143905 | 72 | 263 | 4.3 | 9.6 | 0.00 | 0.00 | 0.00 | 84 | 942.7 |
| 20260509143803 | 72 | 257 | 4.3 | 9.6 | 0.00 | 0.00 | 0.00 | 84 | 942.7 |
| 20260509143705 | 72 | 246 | 4.3 | 9.6 | 0.00 | 0.00 | 0.00 | 84 | 942.7 |
| 20260509143602 | 72 | 238 | 4.3 | 9.6 | 0.00 | 0.00 | 0.00 | 84 | 942.7 |
| 20260509143459 | 72 | 207 | 4.3 | 9.6 | 0.00 | 0.00 | 0.00 | 84 | 942.7 |
| 20260509143355 | 71 | 215 | 4.3 | 9.6 | 0.00 | 0.00 | 0.00 | 84 | 942.7 |
| 20260509143256 | 71 | 235 | 4.3 | 9.6 | 0.00 | 0.00 | 0.00 | 84 | 942.8 |
| 20260509143155 | 71 | 180 | 4.3 | 9.6 | 0.00 | 0.00 | 0.00 | 84 | 942.7 |
| 20260509143056 | 71 | 220 | 4.3 | 9.6 | 0.00 | 0.00 | 0.00 | 85 | 942.7 |
| 20260509143024 | 71 | 244 | 3.5 | 9.6 | 0.00 | 0.00 | 0.00 | 85 | 942.7 |
| 20260509142853 | 71 | 240 | 3.5 | 9.6 | 0.00 | 0.00 | 0.00 | 85 | 942.7 |
| 20260509142800 | 71 | 230 | 3.5 | 8.7 | 0.00 | 0.00 | 0.00 | 85 | 942.7 |
| 20260509142745 | 71 | 255 | 3.5 | 8.7 | 0.00 | 0.00 | 0.00 | 85 | 942.7 |
| 20260509142550 | 71 | 252 | 4.3 | 8.7 | 0.00 | 0.00 | 0.00 | 85 | 942.8 |
| 20260509142518 | 71 | 257 | 4.3 | 8.7 | 0.00 | 0.00 | 0.00 | 86 | 942.8 |
| 20260509142345 | 71 | 232 | 4.3 | 7.8 | 0.00 | 0.00 | 0.00 | 86 | 942.8 |
| 20260509142244 | 70 | 252 | 4.3 | 7.8 | 0.00 | 0.00 | 0.00 | 86 | 942.8 |
| 20260509142144 | 70 | 248 | 4.3 | 7.8 | 0.00 | 0.00 | 0.00 | 87 | 942.9 |
| 20260509142044 | 70 | 230 | 4.3 | 7.8 | 0.00 | 0.00 | 0.00 | 86 | 942.8 |
| 20260509142013 | 70 | 250 | 5.2 | 8.7 | 0.00 | 0.00 | 0.00 | 86 | 942.9 |
| 20260509141839 | 70 | 236 | 5.2 | 8.7 | 0.00 | 0.00 | 0.00 | 86 | 942.9 |
| 20260509141739 | 70 | 221 | 5.2 | 8.7 | 0.00 | 0.00 | 0.00 | 86 | 942.9 |
| 20260509141637 | 70 | 218 | 5.2 | 8.7 | 0.00 | 0.00 | 0.00 | 87 | 942.9 |
| 20260509141538 | 70 | 217 | 4.3 | 8.7 | 0.00 | 0.00 | 0.00 | 86 | 942.9 |
| 20260509141432 | 70 | 186 | 4.3 | 8.7 | 0.00 | 0.00 | 0.00 | 86 | 942.9 |
| 20260509141332 | 70 | 188 | 4.3 | 8.7 | 0.00 | 0.00 | 0.00 | 86 | 942.9 |
| 20260509141233 | 70 | 183 | 4.3 | 8.7 | 0.00 | 0.00 | 0.00 | 87 | 942.9 |
| 20260509141132 | 70 | 186 | 4.3 | 8.7 | 0.00 | 0.00 | 0.00 | 87 | 942.9 |
| 20260509141032 | 70 | 199 | 3.5 | 7.8 | 0.00 | 0.00 | 0.00 | 87 | 942.9 |
| 20260509140925 | 70 | 178 | 3.5 | 7.8 | 0.00 | 0.00 | 0.00 | 87 | 942.9 |
| 20260509140827 | 70 | 163 | 3.5 | 7.8 | 0.00 | 0.00 | 0.00 | 87 | 942.9 |
| 20260509140726 | 69 | 208 | 3.5 | 7.0 | 0.00 | 0.00 | 0.00 | 87 | 942.9 |
| 20260509140627 | 69 | 211 | 3.5 | 7.0 | 0.00 | 0.00 | 0.00 | 88 | 942.9 |
| 20260509140526 | 69 | 197 | 3.5 | 7.0 | 0.00 | 0.00 | 0.00 | 88 | 942.9 |
| 20260509140423 | 69 | 238 | 3.5 | 7.8 | 0.00 | 0.00 | 0.00 | 88 | 942.9 |
| 20260509140322 | 69 | 260 | 3.5 | 7.8 | 0.00 | 0.00 | 0.00 | 89 | 942.9 |
| 20260509140222 | 69 | 222 | 3.5 | 7.8 | 0.00 | 0.00 | 0.00 | 90 | 942.9 |
| 20260509140123 | 69 | 246 | 3.5 | 7.8 | 0.00 | 0.00 | 0.00 | 89 | 942.9 |
| 20260509140020 | 69 | 233 | 3.5 | 7.8 | 0.00 | 0.00 | 0.00 | 89 | 942.9 |
| 20260509135914 | 69 | 236 | 3.5 | 8.7 | 0.00 | 0.00 | 0.00 | 89 | 942.9 |
| 20260509135813 | 69 | 238 | 3.5 | 8.7 | 0.00 | 0.00 | 0.00 | 89 | 942.9 |
| 20260509135714 | 69 | 206 | 3.5 | 8.7 | 0.00 | 0.00 | 0.00 | 90 | 942.9 |
| 20260509135613 | 68 | 223 | 3.5 | 8.7 | 0.00 | 0.00 | 0.00 | 90 | 942.9 |
| 20260509135514 | 68 | 204 | 3.5 | 8.7 | 0.00 | 0.00 | 0.00 | 90 | 942.9 |
| 20260509135409 | 68 | 217 | 3.5 | 8.7 | 0.00 | 0.00 | 0.00 | 90 | 943.0 |
| 20260509135311 | 68 | 238 | 3.5 | 8.7 | 0.00 | 0.00 | 0.00 | 91 | 943.0 |
| 20260509135209 | 68 | 238 | 3.5 | 8.7 | 0.00 | 0.00 | 0.00 | 91 | 943.0 |
| 20260509135111 | 68 | 196 | 3.5 | 8.7 | 0.00 | 0.00 | 0.00 | 91 | 943.0 |
| 20260509135008 | 68 | 232 | 3.5 | 8.7 | 0.00 | 0.00 | 0.00 | 92 | 943.0 |
| 20260509134905 | 68 | 202 | 3.5 | 7.0 | 0.00 | 0.00 | 0.00 | 91 | 942.9 |
| 20260509134801 | 68 | 244 | 3.5 | 7.0 | 0.00 | 0.00 | 0.00 | 92 | 942.9 |
| 20260509134701 | 67 | 225 | 3.5 | 7.0 | 0.00 | 0.00 | 0.00 | 93 | 942.9 |
| 20260509134601 | 67 | 250 | 3.5 | 7.0 | 0.00 | 0.00 | 0.00 | 93 | 942.9 |
| 20260509134502 | 67 | 227 | 3.5 | 7.0 | 0.00 | 0.00 | 0.00 | 93 | 942.8 |
| 20260509134356 | 67 | 227 | 2.6 | 7.0 | 0.00 | 0.00 | 0.00 | 93 | 942.8 |
| 20260509134257 | 67 | 223 | 2.6 | 7.0 | 0.00 | 0.00 | 0.00 | 93 | 942.8 |
| 20260509134155 | 67 | 239 | 2.6 | 6.1 | 0.00 | 0.00 | 0.00 | 93 | 942.7 |
| 20260509134056 | 67 | 256 | 2.6 | 6.1 | 0.00 | 0.00 | 0.00 | 93 | 942.8 |
| 20260509133956 | 67 | 251 | 2.6 | 6.1 | 0.00 | 0.00 | 0.00 | 94 | 942.8 |
| 20260509133852 | 67 | 247 | 2.6 | 6.1 | 0.00 | 0.00 | 0.00 | 94 | 942.8 |
| 20260509133751 | 67 | 244 | 2.6 | 6.1 | 0.00 | 0.00 | 0.00 | 94 | 942.8 |
| 20260509133652 | 66 | 221 | 2.6 | 6.1 | 0.00 | 0.00 | 0.00 | 94 | 942.8 |
| 20260509133552 | 66 | 220 | 2.6 | 6.1 | 0.00 | 0.00 | 0.00 | 94 | 942.8 |
| 20260509133450 | 66 | 229 | 2.6 | 7.0 | 0.00 | 0.00 | 0.00 | 94 | 942.8 |
| 20260509133344 | 66 | 203 | 3.5 | 8.7 | 0.00 | 0.00 | 0.00 | 94 | 942.8 |
| 20260509133244 | 66 | 234 | 3.5 | 8.7 | 0.00 | 0.00 | 0.00 | 94 | 942.8 |
| 20260509133145 | 66 | 254 | 3.5 | 8.7 | 0.00 | 0.00 | 0.00 | 94 | 942.8 |
| 20260509133043 | 66 | 226 | 3.5 | 8.7 | 0.00 | 0.00 | 0.00 | 94 | 942.9 |
| 20260509132944 | 66 | 218 | 3.5 | 8.7 | 0.00 | 0.00 | 0.00 | 94 | 942.8 |
| 20260509132842 | 66 | 246 | 3.5 | 8.7 | 0.00 | 0.00 | 0.00 | 94 | 942.8 |
| 20260509132742 | 66 | 243 | 3.5 | 8.7 | 0.00 | 0.00 | 0.00 | 94 | 942.8 |
| 20260509132640 | 66 | 239 | 3.5 | 8.7 | 0.00 | 0.00 | 0.00 | 95 | 942.8 |
| 20260509132541 | 66 | 209 | 3.5 | 8.7 | 0.00 | 0.00 | 0.00 | 95 | 942.9 |
| 20260509132438 | 66 | 247 | 2.6 | 8.7 | 0.00 | 0.00 | 0.00 | 95 | 942.9 |
| 20260509132334 | 66 | 236 | 2.6 | 7.0 | 0.00 | 0.00 | 0.00 | 95 | 942.9 |
| 20260509132232 | 66 | 242 | 2.6 | 7.0 | 0.00 | 0.00 | 0.00 | 95 | 942.9 |
| 20260509132133 | 66 | 234 | 2.6 | 7.0 | 0.00 | 0.00 | 0.00 | 95 | 942.8 |
| 20260509132031 | 66 | 271 | 2.6 | 5.2 | 0.00 | 0.00 | 0.00 | 95 | 942.8 |
| 20260509131933 | 66 | 238 | 1.7 | 5.2 | 0.00 | 0.00 | 0.00 | 96 | 942.7 |
| 20260509131829 | 66 | 241 | 1.7 | 3.5 | 0.00 | 0.00 | 0.00 | 96 | 942.7 |
| 20260509131730 | 66 | 269 | 1.7 | 3.5 | 0.00 | 0.00 | 0.00 | 96 | 942.7 |
| 20260509131627 | 65 | 246 | 1.7 | 3.5 | 0.00 | 0.00 | 0.00 | 95 | 942.7 |
| 20260509131528 | 65 | 249 | 1.7 | 3.5 | 0.00 | 0.00 | 0.00 | 95 | 942.7 |
| 20260509131426 | 65 | 238 | 1.7 | 3.5 | 0.00 | 0.00 | 0.00 | 95 | 942.6 |
| 20260509131319 | 65 | 225 | 0.9 | 3.5 | 0.00 | 0.00 | 0.00 | 95 | 942.7 |
| 20260509131220 | 65 | 198 | 0.9 | 3.5 | 0.00 | 0.00 | 0.00 | 96 | 942.7 |
| 20260509131121 | 65 | 201 | 0.9 | 3.5 | 0.00 | 0.00 | 0.00 | 96 | 942.6 |
| 20260509131020 | 65 | 234 | 0.9 | 3.5 | 0.00 | 0.00 | 0.00 | 96 | 942.6 |
| 20260509130920 | 65 | 244 | 0.9 | 2.6 | 0.00 | 0.00 | 0.00 | 95 | 942.6 |
| 20260509130817 | 65 | 244 | 0.9 | 2.6 | 0.00 | 0.00 | 0.00 | 95 | 942.6 |
| 20260509130714 | 65 | 238 | 0.9 | 2.6 | 0.00 | 0.00 | 0.00 | 95 | 942.6 |
| 20260509130615 | 65 | 244 | 0.9 | 1.7 | 0.00 | 0.00 | 0.00 | 95 | 942.6 |
| 20260509130513 | 65 | 244 | 0.9 | 1.7 | 0.00 | 0.00 | 0.00 | 95 | 942.6 |
| 20260509130414 | 64 | 244 | 0.9 | 1.7 | 0.00 | 0.00 | 0.00 | 95 | 942.6 |
| 20260509130310 | 64 | 244 | 0.9 | 1.7 | 0.00 | 0.00 | 0.00 | 95 | 942.6 |
| 20260509130208 | 64 | 244 | 0.9 | 1.7 | 0.00 | 0.00 | 0.00 | 95 | 942.6 |
| 20260509130107 | 64 | 244 | 0.9 | 1.7 | 0.00 | 0.00 | 0.00 | 95 | 942.6 |
| 20260509130008 | 64 | 244 | 0.9 | 1.7 | 0.00 | 0.00 | 0.00 | 95 | 942.5 |
| 20260509125908 | 64 | 244 | 0.9 | 1.7 | 0.00 | 0.00 | 0.00 | 95 | 942.5 |
| 20260509125802 | 64 | 244 | 0.9 | 1.7 | 0.00 | 0.00 | 0.00 | 95 | 942.4 |
| 20260509125702 | 64 | 244 | 0.9 | 2.6 | 0.00 | 0.00 | 0.00 | 95 | 942.4 |
| 20260509125602 | 64 | 257 | 0.9 | 2.6 | 0.00 | 0.00 | 0.00 | 95 | 942.4 |
| 20260509125503 | 64 | 257 | 0.9 | 2.6 | 0.00 | 0.00 | 0.00 | 95 | 942.4 |
| 20260509125402 | 64 | 257 | 0.9 | 2.6 | 0.00 | 0.00 | 0.00 | 95 | 942.4 |
| 20260509125307 | 64 | 208 | 0.9 | 2.6 | 0.00 | 0.00 | 0.00 | 95 | 942.4 |
| 20260509125200 | 64 | 208 | 0.9 | 2.6 | 0.00 | 0.00 | 0.00 | 96 | 942.4 |
| 20260509125059 | 64 | 208 | 0.9 | 2.6 | 0.00 | 0.00 | 0.00 | 96 | 942.4 |
| 20260509124959 | 64 | 208 | 1.7 | 2.6 | 0.00 | 0.00 | 0.00 | 96 | 942.4 |
| 20260509124856 | 64 | 208 | 1.7 | 2.6 | 0.00 | 0.00 | 0.00 | 96 | 942.3 |
| 20260509124823 | 64 | 208 | 1.7 | 3.5 | 0.00 | 0.00 | 0.00 | 95 | 942.3 |
| 20260509124655 | 64 | 200 | 1.7 | 3.5 | 0.00 | 0.00 | 0.00 | 95 | 942.3 |
| 20260509124554 | 63 | 218 | 1.7 | 4.3 | 0.00 | 0.00 | 0.00 | 96 | 942.3 |
| 20260509124451 | 63 | 233 | 1.7 | 4.3 | 0.00 | 0.00 | 0.00 | 96 | 942.3 |
| 20260509124351 | 63 | 229 | 1.7 | 4.3 | 0.00 | 0.00 | 0.00 | 96 | 942.3 |
| 20260509124245 | 63 | 239 | 1.7 | 4.3 | 0.00 | 0.00 | 0.00 | 95 | 942.3 |
| 20260509124145 | 63 | 213 | 1.7 | 4.3 | 0.00 | 0.00 | 0.00 | 95 | 942.3 |
| 20260509124046 | 63 | 246 | 1.7 | 4.3 | 0.00 | 0.00 | 0.00 | 96 | 942.3 |
| 20260509123946 | 62 | 250 | 1.7 | 4.3 | 0.00 | 0.00 | 0.00 | 96 | 942.3 |
| 20260509123844 | 62 | 250 | 1.7 | 4.3 | 0.00 | 0.00 | 0.00 | 95 | 942.3 |
| 20260509123741 | 62 | 249 | 1.7 | 4.3 | 0.00 | 0.00 | 0.00 | 95 | 942.2 |
| 20260509123637 | 62 | 230 | 1.7 | 4.3 | 0.00 | 0.00 | 0.00 | 95 | 942.3 |
| 20260509123539 | 62 | 244 | 1.7 | 2.6 | 0.00 | 0.00 | 0.00 | 95 | 942.3 |
| 20260509123437 | 62 | 217 | 1.7 | 2.6 | 0.00 | 0.00 | 0.00 | 95 | 942.3 |
| 20260509123338 | 61 | 211 | 1.7 | 2.6 | 0.00 | 0.00 | 0.00 | 95 | 942.3 |
| 20260509123308 | 61 | 190 | 1.7 | 2.6 | 0.00 | 0.00 | 0.00 | 95 | 942.3 |
| 20260509123136 | 61 | 198 | 1.7 | 2.6 | 0.00 | 0.00 | 0.00 | 95 | 942.4 |
| 20260509123042 | 61 | 207 | 1.7 | 3.5 | 0.00 | 0.00 | 0.00 | 95 | 942.3 |
| 20260509123027 | 61 | 207 | 1.7 | 3.5 | 0.00 | 0.00 | 0.00 | 95 | 942.3 |
| 20260509122832 | 61 | 207 | 1.7 | 3.5 | 0.00 | 0.00 | 0.00 | 95 | 942.3 |
| 20260509122801 | 61 | 207 | 1.7 | 3.5 | 0.00 | 0.00 | 0.00 | 95 | 942.3 |
| 20260509122625 | 60 | 207 | 1.7 | 3.5 | 0.00 | 0.00 | 0.00 | 94 | 942.3 |
| 20260509122526 | 60 | 207 | 1.7 | 3.5 | 0.00 | 0.00 | 0.00 | 94 | 942.2 |
| 20260509122425 | 60 | 210 | 1.7 | 3.5 | 0.00 | 0.00 | 0.00 | 94 | 942.3 |
| 20260509122326 | 60 | 195 | 1.7 | 3.5 | 0.00 | 0.00 | 0.00 | 94 | 942.2 |
| 20260509122220 | 60 | 201 | 0.9 | 3.5 | 0.00 | 0.00 | 0.00 | 94 | 942.2 |
| 20260509122120 | 60 | 201 | 0.9 | 3.5 | 0.00 | 0.00 | 0.00 | 94 | 942.2 |
| 20260509122020 | 60 | 221 | 0.9 | 2.6 | 0.00 | 0.00 | 0.00 | 94 | 942.3 |
| 20260509121919 | 60 | 221 | 0.9 | 2.6 | 0.00 | 0.00 | 0.00 | 94 | 942.3 |
| 20260509121821 | 60 | 283 | 0.9 | 2.6 | 0.00 | 0.00 | 0.00 | 93 | 942.3 |
| 20260509121713 | 60 | 283 | 0.9 | 1.7 | 0.00 | 0.00 | 0.00 | 93 | 942.3 |
| 20260509121615 | 60 | 283 | 0.9 | 1.7 | 0.00 | 0.00 | 0.00 | 93 | 942.3 |
| 20260509121513 | 60 | 283 | 0.9 | 1.7 | 0.00 | 0.00 | 0.00 | 93 | 942.3 |
| 20260509121414 | 60 | 283 | 0.9 | 2.6 | 0.00 | 0.00 | 0.00 | 93 | 942.3 |
| 20260509121314 | 60 | 283 | 0.9 | 2.6 | 0.00 | 0.00 | 0.00 | 93 | 942.3 |
| 20260509121242 | 60 | 283 | 0.9 | 2.6 | 0.00 | 0.00 | 0.00 | 93 | 942.3 |
| 20260509121108 | 60 | 283 | 0.9 | 2.6 | 0.00 | 0.00 | 0.00 | 93 | 942.3 |
| 20260509121008 | 60 | 283 | 0.9 | 2.6 | 0.00 | 0.00 | 0.00 | 93 | 942.3 |
| 20260509120907 | 60 | 283 | 0.9 | 2.6 | 0.00 | 0.00 | 0.00 | 93 | 942.2 |
| 20260509120808 | 60 | 25 | 0.9 | 2.6 | 0.00 | 0.00 | 0.00 | 93 | 942.3 |
| 20260509120708 | 60 | 25 | 0.9 | 2.6 | 0.00 | 0.00 | 0.00 | 93 | 942.3 |
| 20260509120606 | 60 | 25 | 0.9 | 2.6 | 0.00 | 0.00 | 0.00 | 93 | 942.3 |
| 20260509120505 | 60 | 25 | 0.9 | 2.6 | 0.00 | 0.00 | 0.00 | 93 | 942.3 |
| 20260509120404 | 60 | 271 | 0.9 | 1.7 | 0.00 | 0.00 | 0.00 | 93 | 942.3 |
| 20260509120302 | 61 | 271 | 0.0 | 1.7 | 0.00 | 0.00 | 0.00 | 93 | 942.3 |
| 20260509120158 | 61 | 271 | 0.0 | 1.7 | 0.00 | 0.00 | 0.00 | 93 | 942.3 |
| 20260509120055 | 61 | 271 | 0.9 | 1.7 | 0.00 | 0.00 | 0.00 | 93 | 942.3 |
| 20260509115956 | 61 | 271 | 0.9 | 2.6 | 0.00 | 0.00 | 0.00 | 93 | 942.3 |
| 20260509115856 | 61 | 271 | 0.9 | 2.6 | 0.00 | 0.00 | 0.00 | 93 | 942.2 |
| 20260509115756 | 61 | 271 | 0.9 | 2.6 | 0.00 | 0.00 | 0.00 | 93 | 942.2 |
| 20260509115651 | 61 | 271 | 0.9 | 2.6 | 0.00 | 0.00 | 0.00 | 93 | 942.1 |
| 20260509115550 | 61 | 271 | 0.9 | 2.6 | 0.00 | 0.00 | 0.00 | 93 | 942.1 |
| 20260509115450 | 61 | 271 | 0.9 | 2.6 | 0.00 | 0.00 | 0.00 | 93 | 942.1 |
| 20260509115349 | 61 | 271 | 0.9 | 2.6 | 0.00 | 0.00 | 0.00 | 93 | 942.1 |
| 20260509115250 | 61 | 271 | 1.7 | 2.6 | 0.00 | 0.00 | 0.00 | 93 | 942.0 |
| 20260509115147 | 61 | 271 | 1.7 | 2.6 | 0.00 | 0.00 | 0.00 | 93 | 942.1 |
| 20260509115048 | 61 | 282 | 0.9 | 2.6 | 0.00 | 0.00 | 0.00 | 93 | 942.1 |
| 20260509114948 | 61 | 257 | 0.9 | 2.6 | 0.00 | 0.00 | 0.00 | 93 | 942.1 |
| 20260509114846 | 61 | 253 | 0.9 | 2.6 | 0.00 | 0.00 | 0.00 | 94 | 942.1 |
| 20260509114744 | 61 | 249 | 0.9 | 2.6 | 0.00 | 0.00 | 0.00 | 93 | 942.1 |
| 20260509114712 | 61 | 240 | 0.9 | 2.6 | 0.00 | 0.00 | 0.00 | 93 | 942.1 |
| 20260509114540 | 61 | 190 | 0.9 | 1.7 | 0.00 | 0.00 | 0.00 | 93 | 942.0 |
| 20260509114439 | 61 | 190 | 0.9 | 1.7 | 0.00 | 0.00 | 0.00 | 93 | 942.0 |
| 20260509114341 | 61 | 190 | 0.9 | 1.7 | 0.00 | 0.00 | 0.00 | 93 | 942.0 |
| 20260509114238 | 61 | 190 | 0.9 | 2.6 | 0.00 | 0.00 | 0.00 | 93 | 941.9 |
| 20260509114139 | 61 | 190 | 0.9 | 2.6 | 0.00 | 0.00 | 0.00 | 93 | 941.9 |
| 20260509114037 | 61 | 134 | 0.9 | 2.6 | 0.00 | 0.00 | 0.00 | 93 | 941.9 |
| 20260509113933 | 61 | 134 | 0.9 | 2.6 | 0.00 | 0.00 | 0.00 | 93 | 941.9 |
| 20260509113834 | 61 | 134 | 0.9 | 2.6 | 0.00 | 0.00 | 0.00 | 93 | 941.8 |
| 20260509113732 | 61 | 134 | 0.9 | 2.6 | 0.00 | 0.00 | 0.00 | 93 | 941.9 |
| 20260509113701 | 61 | 134 | 0.9 | 2.6 | 0.00 | 0.00 | 0.00 | 93 | 941.8 |
| 20260509113525 | 61 | 134 | 0.9 | 2.6 | 0.00 | 0.00 | 0.00 | 93 | 941.8 |
| 20260509113427 | 61 | 134 | 0.9 | 2.6 | 0.00 | 0.00 | 0.00 | 93 | 941.8 |
| 20260509113325 | 61 | 134 | 0.9 | 2.6 | 0.00 | 0.00 | 0.00 | 93 | 941.8 |
| 20260509113226 | 61 | 134 | 0.9 | 2.6 | 0.00 | 0.00 | 0.00 | 93 | 941.7 |
| 20260509113121 | 61 | 134 | 0.9 | 2.6 | 0.00 | 0.00 | 0.00 | 92 | 941.7 |
| 20260509113020 | 61 | 123 | 0.9 | 2.6 | 0.00 | 0.00 | 0.00 | 92 | 941.7 |
| 20260509112921 | 61 | 148 | 0.9 | 2.6 | 0.00 | 0.00 | 0.00 | 92 | 941.7 |
| 20260509112819 | 62 | 154 | 0.9 | 1.7 | 0.00 | 0.00 | 0.00 | 93 | 941.7 |
| 20260509112720 | 62 | 154 | 0.9 | 1.7 | 0.00 | 0.00 | 0.00 | 92 | 941.6 |
| 20260509112615 | 62 | 154 | 0.9 | 1.7 | 0.00 | 0.00 | 0.00 | 92 | 941.6 |
| 20260509112513 | 62 | 154 | 0.9 | 1.7 | 0.00 | 0.00 | 0.00 | 92 | 941.5 |
| 20260509112415 | 62 | 154 | 0.9 | 1.7 | 0.00 | 0.00 | 0.00 | 93 | 941.5 |
| 20260509112314 | 62 | 154 | 0.9 | 1.7 | 0.00 | 0.00 | 0.00 | 92 | 941.5 |
| 20260509112214 | 62 | 154 | 0.9 | 1.7 | 0.00 | 0.00 | 0.00 | 92 | 941.5 |
| 20260509112114 | 62 | 154 | 0.9 | 1.7 | 0.00 | 0.00 | 0.00 | 93 | 941.5 |
| 20260509112012 | 62 | 154 | 0.9 | 2.6 | 0.00 | 0.00 | 0.00 | 92 | 941.5 |
| 20260509111911 | 62 | 154 | 1.7 | 2.6 | 0.00 | 0.00 | 0.00 | 92 | 941.5 |
| 20260509111811 | 62 | 154 | 1.7 | 3.5 | 0.00 | 0.00 | 0.00 | 92 | 941.5 |
| 20260509111708 | 62 | 154 | 1.7 | 3.5 | 0.00 | 0.00 | 0.00 | 92 | 941.5 |
| 20260509111602 | 62 | 154 | 1.7 | 3.5 | 0.00 | 0.00 | 0.00 | 92 | 941.5 |
| 20260509111501 | 62 | 154 | 1.7 | 3.5 | 0.00 | 0.00 | 0.00 | 92 | 941.5 |
| 20260509111402 | 62 | 138 | 1.7 | 3.5 | 0.00 | 0.00 | 0.00 | 92 | 941.6 |
| 20260509111302 | 62 | 148 | 1.7 | 3.5 | 0.00 | 0.00 | 0.00 | 92 | 941.5 |
| 20260509111202 | 62 | 148 | 1.7 | 3.5 | 0.00 | 0.00 | 0.00 | 92 | 941.5 |
| 20260509111056 | 62 | 138 | 1.7 | 3.5 | 0.00 | 0.00 | 0.00 | 92 | 941.5 |
| 20260509110956 | 62 | 122 | 1.7 | 3.5 | 0.00 | 0.00 | 0.00 | 92 | 941.6 |
| 20260509110855 | 62 | 127 | 1.7 | 3.5 | 0.00 | 0.00 | 0.00 | 92 | 941.6 |
| 20260509110755 | 62 | 115 | 1.7 | 3.5 | 0.00 | 0.00 | 0.00 | 92 | 941.5 |
| 20260509110656 | 62 | 111 | 0.9 | 3.5 | 0.00 | 0.00 | 0.00 | 92 | 941.6 |
| 20260509110625 | 62 | 111 | 0.9 | 2.6 | 0.00 | 0.00 | 0.00 | 92 | 941.5 |
| 20260509110454 | 62 | 122 | 0.9 | 2.6 | 0.00 | 0.00 | 0.00 | 92 | 941.5 |
| 20260509110353 | 62 | 122 | 0.9 | 2.6 | 0.00 | 0.00 | 0.00 | 92 | 941.5 |
| 20260509110252 | 62 | 122 | 1.7 | 2.6 | 0.00 | 0.00 | 0.00 | 92 | 941.5 |
| 20260509110150 | 62 | 122 | 1.7 | 2.6 | 0.00 | 0.00 | 0.00 | 92 | 941.5 |
| 20260509110049 | 62 | 122 | 1.7 | 3.5 | 0.00 | 0.00 | 0.00 | 92 | 941.5 |
| 20260509105948 | 62 | 122 | 1.7 | 3.5 | 0.00 | 0.00 | 0.00 | 92 | 941.5 |
| 20260509105849 | 62 | 122 | 1.7 | 3.5 | 0.00 | 0.00 | 0.00 | 92 | 941.5 |
| 20260509105745 | 62 | 122 | 1.7 | 3.5 | 0.00 | 0.00 | 0.00 | 92 | 941.5 |
| 20260509105644 | 62 | 119 | 1.7 | 3.5 | 0.00 | 0.00 | 0.00 | 92 | 941.5 |
| 20260509105612 | 62 | 121 | 1.7 | 3.5 | 0.00 | 0.00 | 0.00 | 92 | 941.4 |
| 20260509105442 | 62 | 121 | 1.7 | 3.5 | 0.00 | 0.00 | 0.00 | 92 | 941.4 |
| 20260509105339 | 62 | 122 | 1.7 | 3.5 | 0.00 | 0.00 | 0.00 | 92 | 941.3 |
| 20260509105241 | 63 | 121 | 1.7 | 3.5 | 0.00 | 0.00 | 0.00 | 92 | 941.3 |
| 20260509105138 | 63 | 141 | 1.7 | 5.2 | 0.00 | 0.00 | 0.00 | 92 | 941.3 |
| 20260509105034 | 63 | 130 | 1.7 | 5.2 | 0.00 | 0.00 | 0.00 | 92 | 941.3 |
| 20260509104931 | 63 | 130 | 2.6 | 5.2 | 0.00 | 0.00 | 0.00 | 92 | 941.3 |
| 20260509104832 | 63 | 130 | 2.6 | 5.2 | 0.00 | 0.00 | 0.00 | 92 | 941.3 |
| 20260509104731 | 63 | 144 | 2.6 | 5.2 | 0.00 | 0.00 | 0.00 | 92 | 941.3 |
| 20260509104632 | 63 | 128 | 2.6 | 5.2 | 0.00 | 0.00 | 0.00 | 92 | 941.3 |
| 20260509104525 | 63 | 140 | 2.6 | 5.2 | 0.00 | 0.00 | 0.00 | 92 | 941.3 |
| 20260509104426 | 63 | 134 | 2.6 | 5.2 | 0.00 | 0.00 | 0.00 | 92 | 941.3 |
| 20260509104326 | 63 | 138 | 2.6 | 5.2 | 0.00 | 0.00 | 0.00 | 92 | 941.3 |
| 20260509104225 | 63 | 132 | 2.6 | 5.2 | 0.00 | 0.00 | 0.00 | 92 | 941.4 |
| 20260509104127 | 63 | 98 | 2.6 | 5.2 | 0.00 | 0.00 | 0.00 | 92 | 941.4 |
| 20260509104020 | 63 | 120 | 2.6 | 6.1 | 0.00 | 0.00 | 0.00 | 92 | 941.4 |
| 20260509103920 | 63 | 88 | 2.6 | 6.1 | 0.00 | 0.00 | 0.00 | 92 | 941.4 |
| 20260509103819 | 63 | 118 | 2.6 | 6.1 | 0.00 | 0.00 | 0.00 | 92 | 941.4 |
| 20260509103720 | 63 | 103 | 3.5 | 6.1 | 0.00 | 0.00 | 0.00 | 92 | 941.4 |
| 20260509103620 | 63 | 107 | 3.5 | 6.1 | 0.00 | 0.00 | 0.00 | 92 | 941.4 |
| 20260509103548 | 63 | 123 | 3.5 | 6.1 | 0.00 | 0.00 | 0.00 | 92 | 941.5 |
| 20260509103413 | 63 | 120 | 3.5 | 6.1 | 0.00 | 0.00 | 0.00 | 92 | 941.5 |
| 20260509103314 | 63 | 132 | 3.5 | 6.1 | 0.00 | 0.00 | 0.00 | 92 | 941.5 |
| 20260509103214 | 63 | 102 | 3.5 | 7.8 | 0.00 | 0.00 | 0.00 | 92 | 941.5 |
| 20260509103114 | 63 | 126 | 3.5 | 7.8 | 0.00 | 0.00 | 0.00 | 92 | 941.5 |
| 20260509103042 | 63 | 126 | 3.5 | 7.8 | 0.00 | 0.00 | 0.00 | 92 | 941.5 |
| 20260509102909 | 63 | 109 | 3.5 | 7.8 | 0.00 | 0.00 | 0.00 | 92 | 941.5 |
| 20260509102809 | 63 | 120 | 4.3 | 7.8 | 0.00 | 0.00 | 0.00 | 92 | 941.5 |
| 20260509102710 | 63 | 110 | 4.3 | 7.8 | 0.00 | 0.00 | 0.00 | 92 | 941.5 |
| 20260509102608 | 63 | 100 | 4.3 | 7.8 | 0.00 | 0.00 | 0.00 | 92 | 941.5 |
| 20260509102504 | 63 | 135 | 4.3 | 7.8 | 0.00 | 0.00 | 0.00 | 92 | 941.5 |
| 20260509102401 | 63 | 127 | 4.3 | 7.8 | 0.00 | 0.00 | 0.00 | 92 | 941.5 |
| 20260509102301 | 63 | 117 | 4.3 | 7.8 | 0.00 | 0.00 | 0.00 | 92 | 941.6 |
| 20260509102201 | 63 | 116 | 4.3 | 7.0 | 0.00 | 0.00 | 0.00 | 92 | 941.7 |
| 20260509102102 | 63 | 111 | 4.3 | 7.0 | 0.00 | 0.00 | 0.00 | 92 | 941.6 |
| 20260509101956 | 63 | 109 | 4.3 | 7.0 | 0.00 | 0.00 | 0.00 | 92 | 941.6 |
| 20260509101856 | 63 | 120 | 4.3 | 7.0 | 0.00 | 0.00 | 0.00 | 92 | 941.6 |
| 20260509101756 | 63 | 103 | 3.5 | 7.0 | 0.00 | 0.00 | 0.00 | 92 | 941.6 |
| 20260509101657 | 63 | 127 | 3.5 | 7.0 | 0.00 | 0.00 | 0.00 | 92 | 941.6 |
| 20260509101556 | 63 | 111 | 3.5 | 7.0 | 0.00 | 0.00 | 0.00 | 92 | 941.7 |
| 20260509101450 | 63 | 123 | 2.6 | 7.0 | 0.00 | 0.00 | 0.00 | 92 | 941.6 |
| 20260509101350 | 63 | 130 | 2.6 | 7.0 | 0.00 | 0.00 | 0.00 | 92 | 941.6 |
| 20260509101250 | 63 | 105 | 2.6 | 6.1 | 0.00 | 0.00 | 0.00 | 91 | 941.6 |
| 20260509101149 | 63 | 136 | 2.6 | 5.2 | 0.00 | 0.00 | 0.00 | 91 | 941.6 |
| 20260509101050 | 63 | 126 | 1.7 | 5.2 | 0.00 | 0.00 | 0.00 | 91 | 941.6 |
| 20260509101019 | 63 | 160 | 1.7 | 5.2 | 0.00 | 0.00 | 0.00 | 91 | 941.7 |
| 20260509100848 | 63 | 103 | 1.7 | 5.2 | 0.00 | 0.00 | 0.00 | 91 | 941.7 |
| 20260509100745 | 63 | 120 | 1.7 | 4.3 | 0.00 | 0.00 | 0.00 | 91 | 941.7 |
| 20260509100645 | 63 | 128 | 1.7 | 4.3 | 0.00 | 0.00 | 0.00 | 91 | 941.7 |
| 20260509100544 | 63 | 149 | 1.7 | 4.3 | 0.00 | 0.00 | 0.00 | 91 | 941.7 |
| 20260509100443 | 63 | 142 | 2.6 | 4.3 | 0.00 | 0.00 | 0.00 | 91 | 941.8 |
| 20260509100341 | 63 | 111 | 2.6 | 4.3 | 0.00 | 0.00 | 0.00 | 91 | 941.8 |
| 20260509100241 | 63 | 153 | 2.6 | 4.3 | 0.00 | 0.00 | 0.00 | 91 | 941.8 |
| 20260509100140 | 63 | 152 | 2.6 | 4.3 | 0.00 | 0.00 | 0.00 | 91 | 941.8 |
| 20260509100038 | 63 | 144 | 2.6 | 4.3 | 0.00 | 0.00 | 0.00 | 91 | 941.8 |
| 20260509095934 | 63 | 152 | 2.6 | 4.3 | 0.00 | 0.00 | 0.00 | 91 | 941.8 |
| 20260509095831 | 63 | 134 | 2.6 | 4.3 | 0.00 | 0.00 | 0.00 | 91 | 941.8 |
| 20260509095731 | 63 | 155 | 1.7 | 4.3 | 0.00 | 0.00 | 0.00 | 90 | 941.8 |
| 20260509095631 | 63 | 146 | 1.7 | 4.3 | 0.00 | 0.00 | 0.00 | 90 | 941.8 |
| 20260509095532 | 64 | 149 | 1.7 | 3.5 | 0.00 | 0.00 | 0.00 | 90 | 941.8 |
| 20260509095431 | 64 | 165 | 1.7 | 3.5 | 0.00 | 0.00 | 0.00 | 90 | 941.7 |
| 20260509095330 | 64 | 182 | 1.7 | 3.5 | 0.00 | 0.00 | 0.00 | 90 | 941.6 |
| 20260509095229 | 64 | 187 | 0.9 | 3.5 | 0.00 | 0.00 | 0.00 | 90 | 941.6 |
| 20260509095128 | 64 | 193 | 0.9 | 3.5 | 0.00 | 0.00 | 0.00 | 89 | 941.6 |
| 20260509095026 | 64 | 171 | 0.9 | 3.5 | 0.00 | 0.00 | 0.00 | 89 | 941.7 |
| 20260509094920 | 64 | 163 | 0.9 | 2.6 | 0.00 | 0.00 | 0.00 | 89 | 941.7 |
| 20260509094819 | 64 | 163 | 0.9 | 2.6 | 0.00 | 0.00 | 0.00 | 89 | 941.7 |
| 20260509094720 | 64 | 163 | 0.9 | 2.6 | 0.00 | 0.00 | 0.00 | 89 | 941.7 |
| 20260509094620 | 64 | 146 | 0.9 | 2.6 | 0.00 | 0.00 | 0.00 | 89 | 941.8 |
| 20260509094520 | 64 | 146 | 0.9 | 2.6 | 0.00 | 0.00 | 0.00 | 89 | 941.8 |
| 20260509094415 | 64 | 146 | 1.7 | 2.6 | 0.00 | 0.00 | 0.00 | 89 | 941.8 |
| 20260509094315 | 64 | 155 | 1.7 | 3.5 | 0.00 | 0.00 | 0.00 | 89 | 941.8 |
| 20260509094217 | 64 | 132 | 1.7 | 4.3 | 0.00 | 0.00 | 0.00 | 89 | 941.8 |
| 20260509094116 | 64 | 132 | 1.7 | 5.2 | 0.00 | 0.00 | 0.00 | 89 | 941.7 |
| 20260509094014 | 64 | 132 | 2.6 | 5.2 | 0.00 | 0.00 | 0.00 | 89 | 941.7 |
| 20260509093907 | 64 | 140 | 2.6 | 6.1 | 0.00 | 0.00 | 0.00 | 89 | 941.7 |
| 20260509093807 | 64 | 158 | 3.5 | 8.7 | 0.00 | 0.00 | 0.00 | 89 | 941.7 |
| 20260509093707 | 64 | 140 | 3.5 | 8.7 | 0.00 | 0.00 | 0.00 | 89 | 941.7 |
| 20260509093608 | 64 | 125 | 3.5 | 8.7 | 0.00 | 0.00 | 0.00 | 88 | 941.7 |
| 20260509093508 | 64 | 130 | 4.3 | 8.7 | 0.00 | 0.00 | 0.00 | 88 | 941.7 |
| 20260509093438 | 64 | 108 | 4.3 | 8.7 | 0.00 | 0.00 | 0.00 | 88 | 941.6 |
| 20260509093301 | 64 | 120 | 5.2 | 8.7 | 0.00 | 0.00 | 0.00 | 88 | 941.7 |
| 20260509093214 | 64 | 112 | 5.2 | 8.7 | 0.00 | 0.00 | 0.00 | 88 | 941.7 |
| 20260509093158 | 65 | 108 | 5.2 | 8.7 | 0.00 | 0.00 | 0.00 | 88 | 941.6 |
| 20260509093002 | 65 | 127 | 5.2 | 8.7 | 0.00 | 0.00 | 0.00 | 88 | 941.6 |
| 20260509092931 | 65 | 96 | 6.1 | 8.7 | 0.00 | 0.00 | 0.00 | 88 | 941.6 |
| 20260509092757 | 65 | 131 | 5.2 | 8.7 | 0.00 | 0.00 | 0.00 | 88 | 941.6 |
| 20260509092657 | 65 | 125 | 5.2 | 8.7 | 0.00 | 0.00 | 0.00 | 88 | 941.6 |
| 20260509092558 | 65 | 121 | 5.2 | 8.7 | 0.00 | 0.00 | 0.00 | 88 | 941.6 |
| 20260509092456 | 65 | 119 | 5.2 | 8.7 | 0.00 | 0.00 | 0.00 | 88 | 941.7 |
| 20260509092352 | 65 | 109 | 5.2 | 9.6 | 0.00 | 0.00 | 0.00 | 88 | 941.7 |
| 20260509092249 | 65 | 101 | 5.2 | 9.6 | 0.00 | 0.00 | 0.00 | 87 | 941.7 |
| 20260509092149 | 65 | 89 | 6.1 | 9.6 | 0.00 | 0.00 | 0.00 | 87 | 941.7 |
| 20260509092048 | 65 | 105 | 6.1 | 9.6 | 0.00 | 0.00 | 0.00 | 87 | 941.7 |
| 20260509091950 | 65 | 100 | 6.1 | 9.6 | 0.00 | 0.00 | 0.00 | 87 | 941.7 |
| 20260509091929 | 65 | 125 | 6.1 | 9.6 | 0.00 | 0.00 | 0.00 | 87 | 941.6 |
| 20260509091745 | 65 | 93 | 6.1 | 9.6 | 0.00 | 0.00 | 0.00 | 87 | 941.6 |
| 20260509091645 | 65 | 126 | 6.1 | 9.6 | 0.00 | 0.00 | 0.00 | 87 | 941.6 |
| 20260509091546 | 65 | 145 | 6.1 | 9.6 | 0.00 | 0.00 | 0.00 | 87 | 941.5 |
| 20260509091444 | 65 | 120 | 6.1 | 9.6 | 0.00 | 0.00 | 0.00 | 87 | 941.5 |
| 20260509091340 | 65 | 122 | 5.2 | 9.6 | 0.00 | 0.00 | 0.00 | 87 | 941.5 |
| 20260509091237 | 65 | 146 | 6.1 | 10.4 | 0.00 | 0.00 | 0.00 | 86 | 941.5 |
| 20260509091137 | 65 | 150 | 6.1 | 10.4 | 0.00 | 0.00 | 0.00 | 86 | 941.5 |
| 20260509091038 | 65 | 139 | 6.1 | 10.4 | 0.00 | 0.00 | 0.00 | 86 | 941.5 |
| 20260509090938 | 65 | 122 | 6.1 | 11.3 | 0.00 | 0.00 | 0.00 | 86 | 941.5 |
| 20260509090832 | 65 | 116 | 6.1 | 11.3 | 0.00 | 0.00 | 0.00 | 86 | 941.5 |
| 20260509090732 | 65 | 96 | 6.1 | 11.3 | 0.00 | 0.00 | 0.00 | 86 | 941.6 |
| 20260509090632 | 65 | 137 | 6.1 | 11.3 | 0.00 | 0.00 | 0.00 | 86 | 941.6 |
| 20260509090531 | 65 | 106 | 6.1 | 11.3 | 0.00 | 0.00 | 0.00 | 86 | 941.7 |
| 20260509090432 | 65 | 113 | 6.1 | 11.3 | 0.00 | 0.00 | 0.00 | 86 | 941.7 |
| 20260509090326 | 65 | 103 | 6.1 | 11.3 | 0.00 | 0.00 | 0.00 | 86 | 941.7 |
| 20260509090225 | 65 | 123 | 6.1 | 11.3 | 0.00 | 0.00 | 0.00 | 86 | 941.7 |
| 20260509090126 | 66 | 148 | 6.1 | 11.3 | 0.00 | 0.00 | 0.00 | 86 | 941.8 |
| 20260509090027 | 66 | 128 | 6.1 | 11.3 | 0.00 | 0.00 | 0.00 | 86 | 941.7 |
| 20260509085926 | 66 | 129 | 6.1 | 11.3 | 0.00 | 0.00 | 0.00 | 85 | 941.8 |
| 20260509085820 | 66 | 115 | 6.1 | 11.3 | 0.00 | 0.00 | 0.00 | 85 | 941.7 |
| 20260509085719 | 66 | 119 | 6.1 | 10.4 | 0.00 | 0.00 | 0.00 | 85 | 941.8 |
| 20260509085620 | 66 | 130 | 6.1 | 10.4 | 0.00 | 0.00 | 0.00 | 85 | 941.7 |
| 20260509085519 | 66 | 127 | 6.1 | 10.4 | 0.00 | 0.00 | 0.00 | 85 | 941.8 |
| 20260509085438 | 66 | 109 | 6.1 | 10.4 | 0.00 | 0.00 | 0.00 | 85 | 941.8 |
| 20260509085316 | 66 | 117 | 6.1 | 10.4 | 0.00 | 0.00 | 0.00 | 85 | 941.8 |
| 20260509085217 | 66 | 112 | 6.1 | 10.4 | 0.00 | 0.00 | 0.00 | 85 | 941.9 |
| 20260509085117 | 66 | 122 | 6.1 | 10.4 | 0.00 | 0.00 | 0.00 | 85 | 942.0 |
| 20260509085016 | 66 | 118 | 6.1 | 10.4 | 0.00 | 0.00 | 0.00 | 85 | 942.0 |
| 20260509084914 | 66 | 132 | 5.2 | 10.4 | 0.00 | 0.00 | 0.00 | 85 | 942.0 |
| 20260509084813 | 66 | 124 | 5.2 | 10.4 | 0.00 | 0.00 | 0.00 | 85 | 942.0 |
| 20260509084712 | 66 | 113 | 6.1 | 10.4 | 0.00 | 0.00 | 0.00 | 85 | 941.9 |
| 20260509084614 | 67 | 104 | 6.1 | 10.4 | 0.00 | 0.00 | 0.00 | 85 | 942.0 |
| 20260509084512 | 67 | 131 | 7.0 | 10.4 | 0.00 | 0.00 | 0.00 | 85 | 941.9 |
| 20260509084411 | 67 | 111 | 7.0 | 10.4 | 0.00 | 0.00 | 0.00 | 85 | 941.9 |
| 20260509084312 | 67 | 139 | 7.0 | 11.3 | 0.00 | 0.00 | 0.00 | 85 | 942.0 |
| 20260509084211 | 67 | 113 | 7.0 | 13.0 | 0.00 | 0.00 | 0.00 | 85 | 942.0 |
| 20260509084112 | 67 | 123 | 7.0 | 13.0 | 0.00 | 0.00 | 0.00 | 85 | 942.0 |
| 20260509084012 | 67 | 86 | 7.8 | 13.0 | 0.00 | 0.00 | 0.00 | 85 | 942.0 |
| 20260509083912 | 67 | 96 | 7.8 | 13.0 | 0.00 | 0.00 | 0.00 | 86 | 942.1 |
| 20260509083811 | 67 | 111 | 7.8 | 13.0 | 0.00 | 0.00 | 0.00 | 85 | 942.1 |
| 20260509083712 | 67 | 96 | 7.8 | 13.0 | 0.00 | 0.00 | 0.00 | 85 | 942.1 |
| 20260509083609 | 67 | 126 | 7.8 | 13.0 | 0.00 | 0.00 | 0.00 | 85 | 942.2 |
| 20260509083510 | 67 | 91 | 7.8 | 13.0 | 0.00 | 0.00 | 0.00 | 85 | 942.2 |
| 20260509083434 | 67 | 96 | 7.8 | 13.0 | 0.00 | 0.00 | 0.00 | 85 | 942.2 |
| 20260509083309 | 67 | 123 | 7.8 | 13.0 | 0.00 | 0.00 | 0.00 | 85 | 942.3 |
| 20260509083208 | 67 | 107 | 7.8 | 13.0 | 0.00 | 0.00 | 0.00 | 85 | 942.3 |
| 20260509083110 | 67 | 124 | 7.8 | 13.0 | 0.00 | 0.00 | 0.00 | 85 | 942.3 |
| 20260509083010 | 67 | 117 | 7.8 | 13.0 | 0.00 | 0.00 | 0.00 | 85 | 942.3 |
| 20260509082909 | 67 | 111 | 8.7 | 13.0 | 0.00 | 0.00 | 0.00 | 86 | 942.3 |
| 20260509082809 | 67 | 108 | 7.8 | 13.0 | 0.00 | 0.00 | 0.00 | 86 | 942.3 |
| 20260509082709 | 67 | 145 | 7.8 | 13.0 | 0.00 | 0.00 | 0.00 | 86 | 942.3 |
| 20260509082609 | 67 | 133 | 7.8 | 13.0 | 0.00 | 0.00 | 0.00 | 86 | 942.3 |
| 20260509082509 | 67 | 75 | 8.7 | 13.0 | 0.00 | 0.00 | 0.00 | 86 | 942.4 |
| 20260509082409 | 67 | 140 | 7.8 | 13.0 | 0.00 | 0.00 | 0.00 | 86 | 942.5 |
| 20260509082309 | 67 | 102 | 8.7 | 13.0 | 0.00 | 0.00 | 0.00 | 86 | 942.5 |
| 20260509082209 | 67 | 91 | 8.7 | 14.8 | 0.00 | 0.00 | 0.00 | 86 | 942.6 |
| 20260509082109 | 67 | 111 | 8.7 | 14.8 | 0.00 | 0.00 | 0.00 | 86 | 942.6 |
| 20260509082009 | 67 | 81 | 8.7 | 14.8 | 0.00 | 0.00 | 0.00 | 87 | 942.7 |
| 20260509081909 | 68 | 90 | 7.8 | 14.8 | 0.00 | 0.00 | 0.00 | 87 | 942.7 |
| 20260509081810 | 68 | 66 | 8.7 | 14.8 | 0.00 | 0.00 | 0.00 | 87 | 942.6 |
| 20260509081705 | 68 | 86 | 7.8 | 14.8 | 0.00 | 0.00 | 0.00 | 87 | 942.6 |
| 20260509081605 | 68 | 91 | 7.8 | 14.8 | 0.00 | 0.00 | 0.00 | 87 | 942.6 |
| 20260509081505 | 68 | 103 | 7.8 | 14.8 | 0.00 | 0.00 | 0.00 | 87 | 942.5 |
| 20260509081405 | 68 | 111 | 8.7 | 14.8 | 0.00 | 0.00 | 0.00 | 87 | 942.5 |
| 20260509081305 | 68 | 99 | 7.8 | 14.8 | 0.00 | 0.00 | 0.00 | 87 | 942.5 |
| 20260509081205 | 68 | 95 | 7.8 | 13.0 | 0.00 | 0.00 | 0.00 | 88 | 942.5 |
| 20260509081105 | 68 | 115 | 7.0 | 13.0 | 0.00 | 0.00 | 0.00 | 89 | 942.5 |
| 20260509081006 | 68 | 86 | 7.0 | 13.0 | 0.00 | 0.00 | 0.00 | 90 | 942.6 |
| 20260509080906 | 68 | 95 | 7.0 | 13.0 | 0.00 | 0.00 | 0.00 | 90 | 942.6 |
| 20260509080805 | 68 | 63 | 7.0 | 13.0 | 0.00 | 0.00 | 0.00 | 90 | 942.7 |
| 20260509080704 | 68 | 96 | 7.0 | 13.0 | 0.00 | 0.00 | 0.00 | 91 | 942.7 |
| 20260509080605 | 68 | 82 | 6.1 | 13.0 | 0.00 | 0.00 | 0.00 | 91 | 942.7 |
| 20260509080506 | 68 | 69 | 6.1 | 13.0 | 0.00 | 0.00 | 0.00 | 91 | 942.7 |
| 20260509080405 | 68 | 80 | 6.1 | 13.0 | 0.00 | 0.00 | 0.00 | 91 | 942.7 |
| 20260509080305 | 68 | 84 | 6.1 | 11.3 | 0.00 | 0.00 | 0.00 | 92 | 942.7 |
| 20260509080206 | 68 | 80 | 6.1 | 11.3 | 0.00 | 0.00 | 0.00 | 92 | 942.7 |
| 20260509080104 | 68 | 71 | 6.1 | 11.3 | 0.00 | 0.00 | 0.00 | 92 | 942.7 |
| 20260509080006 | 68 | 65 | 5.2 | 10.4 | 0.00 | 0.00 | 0.00 | 92 | 942.8 |
| 20260509075906 | 68 | 80 | 5.2 | 9.6 | 0.00 | 0.00 | 0.00 | 92 | 942.7 |
| 20260509075803 | 68 | 54 | 5.2 | 9.6 | 0.00 | 0.00 | 0.00 | 92 | 942.8 |
| 20260509075702 | 68 | 66 | 5.2 | 9.6 | 0.00 | 0.00 | 0.00 | 92 | 942.7 |
| 20260509075602 | 68 | 61 | 5.2 | 9.6 | 0.00 | 0.00 | 0.00 | 93 | 942.6 |
| 20260509075501 | 68 | 86 | 5.2 | 9.6 | 0.00 | 0.00 | 0.00 | 93 | 942.6 |
| 20260509075401 | 68 | 41 | 5.2 | 9.6 | 0.00 | 0.00 | 0.00 | 93 | 942.5 |
| 20260509075305 | 68 | 83 | 5.2 | 9.6 | 0.00 | 0.00 | 0.00 | 93 | 942.4 |
| 20260509075201 | 68 | 90 | 5.2 | 9.6 | 0.00 | 0.00 | 0.00 | 93 | 942.4 |
| 20260509075102 | 68 | 74 | 5.2 | 9.6 | 0.00 | 0.00 | 0.00 | 93 | 942.4 |
| 20260509075002 | 68 | 92 | 5.2 | 9.6 | 0.00 | 0.00 | 0.00 | 93 | 942.4 |
| 20260509074901 | 68 | 93 | 5.2 | 9.6 | 0.00 | 0.00 | 0.00 | 93 | 942.5 |
| 20260509074801 | 68 | 94 | 5.2 | 9.6 | 0.00 | 0.00 | 0.00 | 93 | 942.5 |
| 20260509074701 | 68 | 87 | 6.1 | 10.4 | 0.00 | 0.00 | 0.00 | 93 | 942.6 |
| 20260509074602 | 68 | 99 | 6.1 | 11.3 | 0.00 | 0.00 | 0.00 | 93 | 942.5 |
| 20260509074502 | 68 | 90 | 6.1 | 12.2 | 0.00 | 0.00 | 0.00 | 93 | 942.5 |
| 20260509074401 | 68 | 81 | 6.1 | 12.2 | 0.00 | 0.00 | 0.00 | 93 | 942.5 |
| 20260509074302 | 68 | 84 | 6.1 | 12.2 | 0.00 | 0.00 | 0.00 | 93 | 942.5 |
| 20260509074201 | 68 | 90 | 6.1 | 12.2 | 0.00 | 0.00 | 0.00 | 93 | 942.5 |
| 20260509074101 | 68 | 68 | 6.1 | 12.2 | 0.00 | 0.00 | 0.00 | 93 | 942.4 |
| 20260509074002 | 68 | 69 | 6.1 | 12.2 | 0.00 | 0.00 | 0.00 | 93 | 942.5 |
| 20260509073857 | 68 | 65 | 6.1 | 12.2 | 0.00 | 0.00 | 0.00 | 93 | 942.4 |
| 20260509073757 | 68 | 92 | 6.1 | 12.2 | 0.00 | 0.00 | 0.00 | 93 | 942.5 |
| 20260509073657 | 68 | 71 | 6.1 | 13.9 | 0.00 | 0.00 | 0.00 | 93 | 942.4 |
| 20260509073557 | 68 | 101 | 6.1 | 13.9 | 0.00 | 0.00 | 0.00 | 93 | 942.4 |
| 20260509073456 | 68 | 74 | 6.1 | 13.9 | 0.00 | 0.00 | 0.00 | 93 | 942.4 |
| 20260509073357 | 68 | 66 | 6.1 | 13.9 | 0.00 | 0.00 | 0.00 | 93 | 942.4 |
| 20260509073258 | 68 | 84 | 6.1 | 13.9 | 0.00 | 0.00 | 0.00 | 93 | 942.5 |
| 20260509073158 | 68 | 66 | 6.1 | 13.9 | 0.00 | 0.00 | 0.00 | 93 | 942.6 |
| 20260509073058 | 68 | 70 | 6.1 | 13.9 | 0.00 | 0.00 | 0.00 | 93 | 942.7 |
| 20260509072956 | 68 | 84 | 6.1 | 13.9 | 0.00 | 0.00 | 0.00 | 94 | 942.8 |
| 20260509072929 | 68 | 51 | 6.1 | 13.9 | 0.00 | 0.00 | 0.00 | 94 | 942.8 |
| 20260509072756 | 68 | 55 | 6.1 | 13.9 | 0.00 | 0.00 | 0.00 | 94 | 942.8 |
| 20260509072658 | 68 | 69 | 6.1 | 13.0 | 0.00 | 0.00 | 0.00 | 94 | 942.8 |
| 20260509072557 | 68 | 71 | 7.0 | 11.3 | 0.00 | 0.00 | 0.00 | 94 | 942.8 |
| 20260509072458 | 68 | 71 | 7.0 | 12.2 | 0.00 | 0.00 | 0.00 | 94 | 942.8 |
| 20260509072357 | 68 | 83 | 7.0 | 12.2 | 0.00 | 0.00 | 0.00 | 94 | 942.9 |
| 20260509072257 | 68 | 44 | 7.0 | 12.2 | 0.00 | 0.00 | 0.00 | 94 | 942.9 |
| 20260509072157 | 68 | 63 | 7.0 | 12.2 | 0.00 | 0.00 | 0.00 | 94 | 942.9 |
| 20260509072058 | 68 | 44 | 7.0 | 12.2 | 0.00 | 0.00 | 0.00 | 94 | 943.0 |
| 20260509071952 | 68 | 74 | 7.0 | 12.2 | 0.00 | 0.00 | 0.00 | 94 | 943.0 |
| 20260509071853 | 68 | 57 | 7.0 | 12.2 | 0.00 | 0.00 | 0.00 | 95 | 943.0 |
| 20260509071753 | 68 | 94 | 7.0 | 12.2 | 0.00 | 0.00 | 0.00 | 95 | 942.9 |
| 20260509071653 | 67 | 64 | 7.0 | 12.2 | 0.00 | 0.00 | 0.00 | 95 | 943.0 |
| 20260509071552 | 67 | 79 | 7.0 | 12.2 | 0.00 | 0.00 | 0.00 | 94 | 943.0 |
| 20260509071454 | 67 | 66 | 7.0 | 11.3 | 0.00 | 0.00 | 0.00 | 94 | 943.1 |
| 20260509071352 | 67 | 22 | 7.0 | 11.3 | 0.00 | 0.00 | 0.00 | 95 | 943.1 |
| 20260509071253 | 67 | 34 | 7.0 | 11.3 | 0.00 | 0.00 | 0.00 | 95 | 943.1 |
| 20260509071152 | 67 | 47 | 6.1 | 11.3 | 0.00 | 0.00 | 0.00 | 95 | 943.1 |
| 20260509071053 | 67 | 45 | 6.1 | 10.4 | 0.00 | 0.00 | 0.00 | 94 | 942.9 |
| 20260509070953 | 67 | 32 | 6.1 | 10.4 | 0.00 | 0.00 | 0.00 | 94 | 942.9 |
| 20260509070853 | 66 | 49 | 5.2 | 10.4 | 0.00 | 0.00 | 0.00 | 94 | 942.9 |
| 20260509070752 | 66 | 22 | 4.3 | 10.4 | 0.00 | 0.00 | 0.00 | 94 | 942.8 |
| 20260509070653 | 66 | 46 | 4.3 | 10.4 | 0.00 | 0.00 | 0.00 | 94 | 942.8 |
| 20260509070554 | 66 | 28 | 3.5 | 10.4 | 0.00 | 0.00 | 0.00 | 94 | 942.8 |
| 20260509070453 | 66 | 65 | 3.5 | 8.7 | 0.00 | 0.00 | 0.00 | 94 | 942.7 |
| 20260509070428 | 65 | 45 | 2.6 | 8.7 | 0.00 | 0.00 | 0.00 | 93 | 942.7 |
| 20260509070253 | 65 | 64 | 2.6 | 7.8 | 0.00 | 0.00 | 0.00 | 93 | 942.7 |
| 20260509070153 | 65 | 31 | 2.6 | 5.2 | 0.00 | 0.00 | 0.00 | 92 | 942.6 |
| 20260509070053 | 65 | 46 | 1.7 | 4.3 | 0.00 | 0.00 | 0.00 | 92 | 942.5 |
| 20260509065954 | 66 | 22 | 1.7 | 3.5 | 0.00 | 0.00 | 0.00 | 92 | 942.4 |
| 20260509065853 | 66 | 16 | 1.7 | 3.5 | 0.00 | 0.00 | 0.00 | 92 | 942.2 |
| 20260509065753 | 66 | 27 | 1.7 | 3.5 | 0.00 | 0.00 | 0.00 | 92 | 942.1 |
| 20260509065653 | 66 | 71 | 1.7 | 3.5 | 0.00 | 0.00 | 0.00 | 92 | 941.9 |
| 20260509065553 | 66 | 69 | 1.7 | 3.5 | 0.00 | 0.00 | 0.00 | 93 | 941.8 |
| 20260509065453 | 66 | 85 | 1.7 | 3.5 | 0.00 | 0.00 | 0.00 | 93 | 941.8 |
| 20260509065353 | 66 | 90 | 1.7 | 3.5 | 0.00 | 0.00 | 0.00 | 93 | 941.8 |
| 20260509065252 | 66 | 90 | 1.7 | 3.5 | 0.00 | 0.00 | 0.00 | 93 | 941.8 |
| 20260509065153 | 66 | 90 | 1.7 | 3.5 | 0.00 | 0.00 | 0.00 | 93 | 941.7 |
| 20260509065053 | 66 | 98 | 1.7 | 3.5 | 0.00 | 0.00 | 0.00 | 93 | 941.7 |
| 20260509064953 | 66 | 98 | 1.7 | 3.5 | 0.00 | 0.00 | 0.00 | 93 | 941.7 |
| 20260509064850 | 66 | 98 | 1.7 | 3.5 | 0.00 | 0.00 | 0.00 | 93 | 941.6 |
| 20260509064746 | 66 | 98 | 1.7 | 3.5 | 0.00 | 0.00 | 0.00 | 92 | 941.6 |
| 20260509064647 | 66 | 95 | 1.7 | 3.5 | 0.00 | 0.00 | 0.00 | 92 | 941.5 |
| 20260509064547 | 66 | 102 | 1.7 | 3.5 | 0.00 | 0.00 | 0.00 | 92 | 941.5 |
| 20260509064447 | 66 | 111 | 1.7 | 3.5 | 0.00 | 0.00 | 0.00 | 92 | 941.5 |
| 20260509064416 | 66 | 108 | 0.9 | 3.5 | 0.00 | 0.00 | 0.00 | 92 | 941.5 |
| 20260509064241 | 66 | 98 | 0.9 | 2.6 | 0.00 | 0.00 | 0.00 | 92 | 941.5 |
| 20260509064142 | 67 | 72 | 0.9 | 1.7 | 0.00 | 0.00 | 0.00 | 92 | 941.5 |
| 20260509064042 | 67 | 72 | 0.9 | 1.7 | 0.00 | 0.00 | 0.00 | 92 | 941.6 |
| 20260509063941 | 67 | 72 | 0.9 | 1.7 | 0.00 | 0.00 | 0.00 | 92 | 941.6 |
| 20260509063911 | 67 | 72 | 0.9 | 1.7 | 0.00 | 0.00 | 0.00 | 92 | 941.6 |
| 20260509063739 | 67 | 72 | 0.9 | 1.7 | 0.00 | 0.00 | 0.00 | 92 | 941.6 |
| 20260509063640 | 67 | 72 | 0.9 | 1.7 | 0.00 | 0.00 | 0.00 | 92 | 941.6 |
| 20260509063538 | 67 | 72 | 0.9 | 1.7 | 0.00 | 0.00 | 0.00 | 92 | 941.6 |
| 20260509063435 | 67 | 72 | 0.9 | 1.7 | 0.00 | 0.00 | 0.00 | 92 | 941.6 |
| 20260509063403 | 67 | 72 | 0.9 | 1.7 | 0.00 | 0.00 | 0.00 | 92 | 941.6 |
| 20260509063229 | 67 | 72 | 0.9 | 2.6 | 0.00 | 0.00 | 0.00 | 92 | 941.6 |
| 20260509063130 | 67 | 72 | 0.9 | 2.6 | 0.00 | 0.00 | 0.00 | 92 | 941.6 |
| 20260509063030 | 67 | 72 | 0.9 | 2.6 | 0.00 | 0.00 | 0.00 | 92 | 941.6 |
| 20260509062929 | 67 | 72 | 0.9 | 2.6 | 0.00 | 0.00 | 0.00 | 92 | 941.5 |
| 20260509062823 | 67 | 72 | 1.7 | 2.6 | 0.00 | 0.00 | 0.00 | 92 | 941.5 |
| 20260509062722 | 67 | 72 | 1.7 | 3.5 | 0.00 | 0.00 | 0.00 | 92 | 941.5 |
| 20260509062624 | 67 | 331 | 1.7 | 4.3 | 0.00 | 0.00 | 0.00 | 93 | 941.5 |
| 20260509062523 | 67 | 331 | 1.7 | 4.3 | 0.00 | 0.00 | 0.00 | 92 | 941.5 |
| 20260509062423 | 67 | 331 | 2.6 | 6.1 | 0.00 | 0.00 | 0.00 | 92 | 941.6 |
| 20260509062316 | 67 | 331 | 2.6 | 6.1 | 0.00 | 0.00 | 0.00 | 92 | 941.6 |
| 20260509062217 | 67 | 331 | 2.6 | 6.1 | 0.00 | 0.00 | 0.00 | 92 | 941.6 |
| 20260509062117 | 67 | 331 | 2.6 | 6.1 | 0.00 | 0.00 | 0.00 | 92 | 941.7 |
| 20260509062018 | 67 | 313 | 2.6 | 6.1 | 0.00 | 0.00 | 0.00 | 92 | 941.7 |
| 20260509061917 | 67 | 338 | 2.6 | 6.1 | 0.00 | 0.00 | 0.00 | 92 | 941.7 |
| 20260509061846 | 67 | 325 | 2.6 | 6.1 | 0.00 | 0.00 | 0.00 | 92 | 941.8 |
| 20260509061711 | 67 | 325 | 1.7 | 6.1 | 0.00 | 0.00 | 0.00 | 92 | 941.8 |
| 20260509061612 | 67 | 329 | 1.7 | 6.1 | 0.00 | 0.00 | 0.00 | 92 | 941.8 |
| 20260509061512 | 67 | 322 | 1.7 | 6.1 | 0.00 | 0.00 | 0.00 | 92 | 941.7 |
| 20260509061412 | 67 | 309 | 2.6 | 12.2 | 0.00 | 0.00 | 0.00 | 92 | 941.6 |
| 20260509061306 | 67 | 300 | 3.5 | 13.0 | 0.00 | 0.00 | 0.00 | 93 | 941.4 |
| 20260509061205 | 67 | 130 | 4.3 | 13.0 | 0.00 | 0.00 | 0.00 | 93 | 941.3 |
| 20260509061104 | 67 | 130 | 5.2 | 13.0 | 0.00 | 0.00 | 0.00 | 93 | 941.0 |
| 20260509061006 | 67 | 130 | 5.2 | 13.0 | 0.00 | 0.00 | 0.00 | 93 | 941.1 |
| 20260509060906 | 67 | 130 | 5.2 | 13.0 | 0.00 | 0.00 | 0.00 | 93 | 941.0 |
| 20260509060802 | 67 | 0 | 5.2 | 13.0 | 0.00 | 0.00 | 0.00 | 93 | 941.2 |
| 20260509060659 | 67 | 339 | 5.2 | 13.0 | 0.00 | 0.00 | 0.00 | 93 | 941.4 |
| 20260509060600 | 67 | 344 | 4.3 | 13.0 | 0.00 | 0.00 | 0.00 | 92 | 941.6 |
| 20260509060458 | 67 | 290 | 4.3 | 13.0 | 0.00 | 0.00 | 0.00 | 92 | 941.6 |
| 20260509060359 | 67 | 326 | 3.5 | 13.0 | 0.00 | 0.00 | 0.00 | 92 | 941.6 |
| 20260509060257 | 67 | 322 | 2.6 | 12.2 | 0.00 | 0.00 | 0.00 | 92 | 941.5 |
| 20260509060158 | 67 | 315 | 1.7 | 12.2 | 0.00 | 0.00 | 0.00 | 91 | 941.3 |
| 20260509060054 | 67 | 317 | 0.9 | 7.0 | 0.00 | 0.00 | 0.00 | 91 | 941.0 |
| 20260509055955 | 67 | 309 | 0.9 | 4.3 | 0.00 | 0.00 | 0.00 | 92 | 940.8 |
| 20260509055855 | 67 | 139 | 0.9 | 2.6 | 0.00 | 0.00 | 0.00 | 91 | 940.6 |
| 20260509055753 | 67 | 139 | 0.9 | 2.6 | 0.00 | 0.00 | 0.00 | 91 | 940.5 |
| 20260509055651 | 67 | 139 | 0.9 | 2.6 | 0.00 | 0.00 | 0.00 | 91 | 940.5 |
| 20260509055553 | 67 | 139 | 0.9 | 2.6 | 0.00 | 0.00 | 0.00 | 91 | 940.4 |
| 20260509055449 | 67 | 139 | 0.9 | 2.6 | 0.00 | 0.00 | 0.00 | 91 | 940.5 |
| 20260509055348 | 68 | 139 | 1.7 | 3.5 | 0.00 | 0.00 | 0.00 | 91 | 940.4 |
| 20260509055317 | 68 | 102 | 1.7 | 3.5 | 0.00 | 0.00 | 0.00 | 91 | 940.5 |
| 20260509055142 | 68 | 115 | 1.7 | 3.5 | 0.00 | 0.00 | 0.00 | 91 | 940.5 |
| 20260509055043 | 68 | 140 | 1.7 | 3.5 | 0.00 | 0.00 | 0.00 | 91 | 940.5 |
| 20260509054942 | 68 | 120 | 1.7 | 3.5 | 0.00 | 0.00 | 0.00 | 91 | 940.4 |
| 20260509054842 | 68 | 120 | 1.7 | 3.5 | 0.00 | 0.00 | 0.00 | 91 | 940.4 |
| 20260509054737 | 68 | 113 | 2.6 | 5.2 | 0.00 | 0.00 | 0.00 | 91 | 940.4 |
| 20260509054636 | 68 | 121 | 2.6 | 5.2 | 0.00 | 0.00 | 0.00 | 91 | 940.4 |
| 20260509054536 | 68 | 138 | 2.6 | 5.2 | 0.00 | 0.00 | 0.00 | 91 | 940.3 |
| 20260509054435 | 68 | 132 | 2.6 | 5.2 | 0.00 | 0.00 | 0.00 | 91 | 940.3 |
| 20260509054336 | 68 | 126 | 2.6 | 5.2 | 0.00 | 0.00 | 0.00 | 91 | 940.3 |
| 20260509054230 | 68 | 132 | 2.6 | 5.2 | 0.00 | 0.00 | 0.00 | 91 | 940.3 |
| 20260509054130 | 68 | 110 | 2.6 | 5.2 | 0.00 | 0.00 | 0.00 | 91 | 940.3 |
| 20260509054031 | 68 | 128 | 2.6 | 5.2 | 0.00 | 0.00 | 0.00 | 91 | 940.3 |
| 20260509053930 | 68 | 120 | 2.6 | 5.2 | 0.00 | 0.00 | 0.00 | 91 | 940.3 |
| 20260509053830 | 68 | 111 | 2.6 | 5.2 | 0.00 | 0.00 | 0.00 | 91 | 940.3 |
| 20260509053727 | 68 | 128 | 2.6 | 3.5 | 0.00 | 0.00 | 0.00 | 91 | 940.3 |
| 20260509053628 | 68 | 124 | 2.6 | 3.5 | 0.00 | 0.00 | 0.00 | 90 | 940.3 |
| 20260509053525 | 68 | 126 | 2.6 | 6.1 | 0.00 | 0.00 | 0.00 | 90 | 940.3 |
| 20260509053427 | 68 | 138 | 2.6 | 6.1 | 0.00 | 0.00 | 0.00 | 90 | 940.3 |
| 20260509053324 | 68 | 147 | 2.6 | 6.1 | 0.00 | 0.00 | 0.00 | 91 | 940.3 |
| 20260509053221 | 68 | 134 | 2.6 | 6.1 | 0.00 | 0.00 | 0.00 | 91 | 940.3 |
| 20260509053117 | 68 | 132 | 2.6 | 6.1 | 0.00 | 0.00 | 0.00 | 91 | 940.3 |
| 20260509053018 | 68 | 157 | 2.6 | 6.1 | 0.00 | 0.00 | 0.00 | 91 | 940.3 |
| 20260509052918 | 68 | 121 | 2.6 | 6.1 | 0.00 | 0.00 | 0.00 | 91 | 940.3 |
| 20260509052818 | 69 | 150 | 2.6 | 6.1 | 0.00 | 0.00 | 0.00 | 91 | 940.3 |
| 20260509052719 | 69 | 128 | 2.6 | 6.1 | 0.00 | 0.00 | 0.00 | 90 | 940.3 |
| 20260509052616 | 69 | 130 | 2.6 | 6.1 | 0.00 | 0.00 | 0.00 | 90 | 940.3 |
| 20260509052515 | 69 | 134 | 2.6 | 6.1 | 0.00 | 0.00 | 0.00 | 90 | 940.3 |
| 20260509052415 | 69 | 150 | 2.6 | 6.1 | 0.00 | 0.00 | 0.00 | 90 | 940.3 |
| 20260509052312 | 69 | 117 | 3.5 | 6.1 | 0.00 | 0.00 | 0.00 | 90 | 940.3 |
| 20260509052207 | 69 | 147 | 3.5 | 7.0 | 0.00 | 0.00 | 0.00 | 90 | 940.3 |
| 20260509052105 | 69 | 116 | 3.5 | 7.0 | 0.00 | 0.00 | 0.00 | 90 | 940.3 |
| 20260509052007 | 69 | 119 | 3.5 | 7.0 | 0.00 | 0.00 | 0.00 | 90 | 940.3 |
| 20260509051905 | 69 | 134 | 3.5 | 7.0 | 0.00 | 0.00 | 0.00 | 90 | 940.3 |
| 20260509051806 | 69 | 123 | 3.5 | 7.0 | 0.00 | 0.00 | 0.00 | 90 | 940.3 |
| 20260509051700 | 69 | 127 | 3.5 | 7.0 | 0.00 | 0.00 | 0.00 | 90 | 940.3 |
| 20260509051600 | 69 | 152 | 3.5 | 7.0 | 0.00 | 0.00 | 0.00 | 90 | 940.4 |
| 20260509051500 | 69 | 117 | 3.5 | 7.0 | 0.00 | 0.00 | 0.00 | 90 | 940.4 |
| 20260509051400 | 69 | 143 | 3.5 | 7.0 | 0.00 | 0.00 | 0.00 | 90 | 940.4 |
| 20260509051300 | 69 | 142 | 2.6 | 7.0 | 0.00 | 0.00 | 0.00 | 90 | 940.4 |
| 20260509051155 | 69 | 129 | 2.6 | 6.1 | 0.00 | 0.00 | 0.00 | 90 | 940.4 |
| 20260509051053 | 69 | 117 | 2.6 | 6.1 | 0.00 | 0.00 | 0.00 | 90 | 940.4 |
| 20260509050955 | 69 | 124 | 2.6 | 6.1 | 0.00 | 0.00 | 0.00 | 90 | 940.4 |
| 20260509050853 | 69 | 118 | 2.6 | 6.1 | 0.00 | 0.00 | 0.00 | 90 | 940.4 |
| 20260509050754 | 69 | 135 | 3.5 | 6.1 | 0.00 | 0.00 | 0.00 | 90 | 940.4 |
| 20260509050648 | 69 | 134 | 3.5 | 7.0 | 0.00 | 0.00 | 0.00 | 90 | 940.4 |
| 20260509050548 | 69 | 121 | 3.5 | 7.0 | 0.00 | 0.00 | 0.00 | 90 | 940.4 |
| 20260509050448 | 69 | 134 | 3.5 | 7.0 | 0.00 | 0.00 | 0.00 | 90 | 940.4 |
| 20260509050348 | 69 | 132 | 3.5 | 7.0 | 0.00 | 0.00 | 0.00 | 89 | 940.4 |
| 20260509050248 | 69 | 119 | 3.5 | 7.0 | 0.00 | 0.00 | 0.00 | 89 | 940.4 |
| 20260509050142 | 69 | 144 | 3.5 | 7.0 | 0.00 | 0.00 | 0.00 | 89 | 940.4 |
| 20260509050042 | 69 | 106 | 4.3 | 7.0 | 0.00 | 0.00 | 0.00 | 89 | 940.4 |
| 20260509045943 | 69 | 142 | 4.3 | 7.0 | 0.00 | 0.00 | 0.00 | 89 | 940.4 |
| 20260509045841 | 69 | 150 | 4.3 | 7.0 | 0.00 | 0.00 | 0.00 | 89 | 940.4 |
| 20260509045742 | 69 | 133 | 4.3 | 7.0 | 0.00 | 0.00 | 0.00 | 89 | 940.4 |
| 20260509045638 | 69 | 153 | 4.3 | 7.0 | 0.00 | 0.00 | 0.00 | 89 | 940.4 |
| 20260509045535 | 69 | 157 | 4.3 | 7.0 | 0.00 | 0.00 | 0.00 | 89 | 940.4 |
| 20260509045436 | 69 | 146 | 4.3 | 7.0 | 0.00 | 0.00 | 0.00 | 89 | 940.4 |